Time,TemperatureF,DewpointF,PressureIn,WindDirection,WindDirectionDegrees,WindSpeedMPH,WindSpeedGustMPH,Humidity,HourlyPrecipIn,Conditions,Clouds,dailyrainin,SoftwareType,DateUTC
2013-01-30 00:02:00,68.0,48.0,29.73,NNE,22,18.0,18.0,50,0.00,,,0.00,TxWx,2013-01-30 06:02:00,
2013-01-30 00:03:00,68.0,48.0,29.73,North,0,10.0,10.0,50,0.00,,,0.00,TxWx,2013-01-30 06:03:00,
2013-01-30 00:04:00,68.0,48.0,29.73,NE,45,11.0,11.0,50,0.00,,,0.00,TxWx,2013-01-30 06:04:00,
2013-01-30 00:05:00,68.0,49.0,29.73,NNE,22,10.0,11.0,50,0.00,,,0.00,TxWx,2013-01-30 06:05:00,
2013-01-30 00:08:00,68.0,49.0,29.73,NNW,337,10.0,11.0,50,0.00,,,0.00,TxWx,2013-01-30 06:08:00,
2013-01-30 00:09:00,68.0,49.0,29.73,NNE,22,15.0,16.0,51,0.00,,,0.00,TxWx,2013-01-30 06:09:00,
2013-01-30 00:14:00,68.0,48.0,29.74,NNW,337,10.0,10.0,50,0.00,,,0.00,TxWx,2013-01-30 06:14:00,
2013-01-30 00:15:00,68.0,49.0,29.74,NNW,337,9.0,10.0,51,0.00,,,0.00,TxWx,2013-01-30 06:15:00,
2013-01-30 00:21:00,68.0,49.0,29.73,NE,45,7.0,7.0,51,0.00,,,0.00,TxWx,2013-01-30 06:21:00,
2013-01-30 00:23:00,68.0,48.0,29.74,NNW,337,11.0,13.0,49,0.00,,,0.00,TxWx,2013-01-30 06:23:00,
2013-01-30 00:26:00,68.0,49.0,29.74,NE,45,14.0,14.0,50,0.00,,,0.00,TxWx,2013-01-30 06:26:00,
2013-01-30 00:29:00,68.0,49.0,29.74,NNE,22,10.0,10.0,50,0.00,,,0.00,TxWx,2013-01-30 06:29:00,
2013-01-30 00:31:00,68.0,49.0,29.74,NNE,22,10.0,15.0,51,0.00,,,0.00,TxWx,2013-01-30 06:31:00,
2013-01-30 00:37:00,68.0,49.0,29.74,NNE,22,13.0,13.0,51,0.00,,,0.00,TxWx,2013-01-30 06:37:00,
2013-01-30 00:39:00,68.0,49.0,29.75,NNE,22,8.0,9.0,52,0.00,,,0.00,TxWx,2013-01-30 06:39:00,
2013-01-30 00:43:00,68.0,50.0,29.75,NNW,337,15.0,18.0,52,0.00,,,0.00,TxWx,2013-01-30 06:43:00,
2013-01-30 00:44:00,68.0,49.0,29.74,NE,45,14.0,14.0,51,0.00,,,0.00,TxWx,2013-01-30 06:44:00,
2013-01-30 00:46:00,68.0,49.0,29.75,North,0,10.0,10.0,52,0.00,,,0.00,TxWx,2013-01-30 06:46:00,
2013-01-30 00:48:00,68.0,49.0,29.75,NNE,22,18.0,18.0,52,0.00,,,0.00,TxWx,2013-01-30 06:48:00,
2013-01-30 00:50:00,68.0,50.0,29.75,North,0,14.0,14.0,53,0.00,,,0.00,TxWx,2013-01-30 06:50:00,
2013-01-30 00:51:00,68.0,50.0,29.75,NE,45,10.0,10.0,53,0.00,,,0.00,TxWx,2013-01-30 06:51:00,
2013-01-30 00:53:00,68.0,50.0,29.76,NE,45,14.0,14.0,52,0.00,,,0.00,TxWx,2013-01-30 06:53:00,
2013-01-30 00:57:00,68.0,48.0,29.76,NNE,22,21.0,21.0,50,0.00,,,0.00,TxWx,2013-01-30 06:57:00,
2013-01-30 00:59:00,68.0,49.0,29.76,NNE,22,10.0,11.0,51,0.00,,,0.00,TxWx,2013-01-30 06:59:00,
2013-01-30 01:04:00,68.0,48.0,29.77,NNE,22,14.0,19.0,49,0.00,,,0.00,TxWx,2013-01-30 07:04:00,
2013-01-30 01:05:00,68.0,48.0,29.77,NNE,22,8.0,8.0,50,0.00,,,0.00,TxWx,2013-01-30 07:05:00,
2013-01-30 01:06:00,68.0,48.0,29.77,ENE,67,8.0,10.0,50,0.00,,,0.00,TxWx,2013-01-30 07:06:00,
2013-01-30 01:10:00,68.0,48.0,29.77,North,0,8.0,11.0,50,0.00,,,0.00,TxWx,2013-01-30 07:10:00,
2013-01-30 01:11:00,68.0,48.0,29.77,ENE,67,7.0,8.0,49,0.00,,,0.00,TxWx,2013-01-30 07:11:00,
2013-01-30 01:12:00,68.0,48.0,29.77,NE,45,11.0,11.0,50,0.00,,,0.00,TxWx,2013-01-30 07:12:00,
2013-01-30 01:15:00,68.0,48.0,29.77,NE,45,11.0,12.0,49,0.00,,,0.00,TxWx,2013-01-30 07:15:00,
2013-01-30 01:17:00,67.0,47.0,29.77,NNE,22,12.0,14.0,48,0.00,,,0.00,TxWx,2013-01-30 07:17:00,
2013-01-30 01:18:00,68.0,47.0,29.77,NNE,22,18.0,19.0,47,0.00,,,0.00,TxWx,2013-01-30 07:18:00,
2013-01-30 01:22:00,67.0,46.0,29.77,NNW,337,11.0,12.0,47,0.00,,,0.00,TxWx,2013-01-30 07:22:00,
2013-01-30 01:23:00,67.0,47.0,29.77,NNE,22,19.0,19.0,48,0.00,,,0.00,TxWx,2013-01-30 07:23:00,
2013-01-30 01:24:00,67.0,45.0,29.77,NNE,22,14.0,15.0,46,0.00,,,0.00,TxWx,2013-01-30 07:24:00,
2013-01-30 01:27:00,67.0,47.0,29.78,ENE,67,8.0,8.0,50,0.00,,,0.00,TxWx,2013-01-30 07:27:00,
2013-01-30 01:28:00,67.0,48.0,29.78,NE,45,18.0,18.0,51,0.00,,,0.00,TxWx,2013-01-30 07:28:00,
2013-01-30 01:31:00,67.0,47.0,29.78,NNE,22,8.0,11.0,48,0.00,,,0.00,TxWx,2013-01-30 07:31:00,
2013-01-30 01:33:00,67.0,47.0,29.78,NNE,22,10.0,11.0,49,0.00,,,0.00,TxWx,2013-01-30 07:33:00,
2013-01-30 01:34:00,67.0,47.0,29.78,NE,45,11.0,11.0,50,0.00,,,0.00,TxWx,2013-01-30 07:34:00,
2013-01-30 01:37:00,67.0,47.0,29.79,NE,45,12.0,16.0,48,0.00,,,0.00,TxWx,2013-01-30 07:37:00,
2013-01-30 01:39:00,67.0,47.0,29.78,NE,45,10.0,10.0,49,0.00,,,0.00,TxWx,2013-01-30 07:39:00,
2013-01-30 01:40:00,67.0,47.0,29.79,North,0,14.0,14.0,49,0.00,,,0.00,TxWx,2013-01-30 07:40:00,
2013-01-30 01:43:00,67.0,45.0,29.78,North,0,16.0,18.0,46,0.00,,,0.00,TxWx,2013-01-30 07:43:00,
2013-01-30 01:45:00,67.0,46.0,29.78,NNE,22,11.0,12.0,47,0.00,,,0.00,TxWx,2013-01-30 07:45:00,
2013-01-30 01:46:00,67.0,45.0,29.79,NNW,337,13.0,14.0,46,0.00,,,0.00,TxWx,2013-01-30 07:46:00,
2013-01-30 01:49:00,67.0,47.0,29.79,NNW,337,8.0,10.0,49,0.00,,,0.00,TxWx,2013-01-30 07:49:00,
2013-01-30 01:51:00,67.0,45.0,29.79,North,0,10.0,13.0,45,0.00,,,0.00,TxWx,2013-01-30 07:51:00,
2013-01-30 01:53:00,67.0,45.0,29.79,North,0,10.0,12.0,45,0.00,,,0.00,TxWx,2013-01-30 07:53:00,
2013-01-30 01:54:00,67.0,47.0,29.79,North,0,13.0,22.0,48,0.00,,,0.00,TxWx,2013-01-30 07:54:00,
2013-01-30 01:55:00,67.0,46.0,29.79,NNW,337,6.0,8.0,48,0.00,,,0.00,TxWx,2013-01-30 07:55:00,
2013-01-30 01:59:00,67.0,45.0,29.79,NE,45,9.0,14.0,46,0.00,,,0.00,TxWx,2013-01-30 07:59:00,
2013-01-30 02:00:00,67.0,45.0,29.79,NNE,22,14.0,18.0,46,0.00,,,0.00,TxWx,2013-01-30 08:00:00,
2013-01-30 02:01:00,67.0,46.0,29.79,North,0,14.0,15.0,48,0.00,,,0.00,TxWx,2013-01-30 08:01:00,
2013-01-30 02:06:00,67.0,47.0,29.79,NNW,337,14.0,14.0,49,0.00,,,0.00,TxWx,2013-01-30 08:06:00,
2013-01-30 02:09:00,67.0,46.0,29.80,NE,45,15.0,18.0,48,0.00,,,0.00,TxWx,2013-01-30 08:09:00,
2013-01-30 02:11:00,67.0,46.0,29.80,NNE,22,14.0,14.0,47,0.00,,,0.00,TxWx,2013-01-30 08:11:00,
2013-01-30 02:12:00,67.0,47.0,29.80,NNE,22,13.0,13.0,48,0.00,,,0.00,TxWx,2013-01-30 08:12:00,
2013-01-30 02:13:00,67.0,47.0,29.80,NNE,22,14.0,15.0,49,0.00,,,0.00,TxWx,2013-01-30 08:13:00,
2013-01-30 02:14:00,67.0,47.0,29.81,NNE,22,13.0,15.0,48,0.00,,,0.00,TxWx,2013-01-30 08:14:00,
2013-01-30 02:17:00,66.0,44.0,29.80,North,0,15.0,16.0,45,0.00,,,0.00,TxWx,2013-01-30 08:17:00,
2013-01-30 02:18:00,66.0,44.0,29.80,NNW,337,8.0,8.0,45,0.00,,,0.00,TxWx,2013-01-30 08:18:00,
2013-01-30 02:20:00,66.0,43.0,29.80,NNE,22,10.0,12.0,43,0.00,,,0.00,TxWx,2013-01-30 08:20:00,
2013-01-30 02:23:00,66.0,43.0,29.80,NNE,22,12.0,13.0,44,0.00,,,0.00,TxWx,2013-01-30 08:23:00,
2013-01-30 02:24:00,66.0,44.0,29.81,NNE,22,8.0,11.0,45,0.00,,,0.00,TxWx,2013-01-30 08:24:00,
2013-01-30 02:28:00,66.0,44.0,29.81,NNE,22,18.0,21.0,45,0.00,,,0.00,TxWx,2013-01-30 08:28:00,
2013-01-30 02:29:00,66.0,44.0,29.81,North,0,12.0,12.0,46,0.00,,,0.00,TxWx,2013-01-30 08:29:00,
2013-01-30 02:30:00,66.0,45.0,29.81,NNE,22,19.0,19.0,47,0.00,,,0.00,TxWx,2013-01-30 08:30:00,
2013-01-30 02:31:00,66.0,43.0,29.81,North,0,15.0,18.0,44,0.00,,,0.00,TxWx,2013-01-30 08:31:00,
2013-01-30 02:34:00,66.0,46.0,29.81,NNE,22,10.0,10.0,48,0.00,,,0.00,TxWx,2013-01-30 08:34:00,
2013-01-30 02:35:00,66.0,44.0,29.81,NNE,22,18.0,20.0,46,0.00,,,0.00,TxWx,2013-01-30 08:35:00,
2013-01-30 02:36:00,66.0,44.0,29.81,NNW,337,14.0,14.0,46,0.00,,,0.00,TxWx,2013-01-30 08:36:00,
2013-01-30 02:39:00,66.0,46.0,29.82,NNW,337,10.0,10.0,49,0.00,,,0.00,TxWx,2013-01-30 08:39:00,
2013-01-30 02:43:00,66.0,45.0,29.82,North,0,11.0,11.0,46,0.00,,,0.00,TxWx,2013-01-30 08:43:00,
2013-01-30 02:44:00,66.0,43.0,29.82,NNE,22,18.0,18.0,44,0.00,,,0.00,TxWx,2013-01-30 08:44:00,
2013-01-30 02:45:00,66.0,45.0,29.81,NNE,22,15.0,16.0,47,0.00,,,0.00,TxWx,2013-01-30 08:45:00,
2013-01-30 02:49:00,66.0,44.0,29.82,NNW,337,12.0,14.0,45,0.00,,,0.00,TxWx,2013-01-30 08:49:00,
2013-01-30 02:52:00,66.0,43.0,29.82,NNE,22,17.0,18.0,43,0.00,,,0.00,TxWx,2013-01-30 08:52:00,
2013-01-30 02:54:00,66.0,44.0,29.82,North,0,9.0,10.0,45,0.00,,,0.00,TxWx,2013-01-30 08:54:00,
2013-01-30 02:55:00,65.0,43.0,29.82,NE,45,14.0,15.0,45,0.00,,,0.00,TxWx,2013-01-30 08:55:00,
2013-01-30 02:57:00,66.0,44.0,29.82,NW,315,7.0,7.0,46,0.00,,,0.00,TxWx,2013-01-30 08:57:00,
2013-01-30 03:00:00,65.0,42.0,29.82,North,0,8.0,10.0,44,0.00,,,0.00,TxWx,2013-01-30 09:00:00,
2013-01-30 03:02:00,65.0,41.0,29.82,NNE,22,13.0,14.0,42,0.00,,,0.00,TxWx,2013-01-30 09:02:00,
2013-01-30 03:03:00,65.0,42.0,29.82,NNE,22,14.0,14.0,44,0.00,,,0.00,TxWx,2013-01-30 09:03:00,
2013-01-30 03:06:00,65.0,43.0,29.82,NE,45,10.0,12.0,45,0.00,,,0.00,TxWx,2013-01-30 09:06:00,
2013-01-30 03:08:00,65.0,43.0,29.82,North,0,14.0,14.0,44,0.00,,,0.00,TxWx,2013-01-30 09:08:00,
2013-01-30 03:11:00,65.0,40.0,29.83,NNW,337,13.0,14.0,40,0.00,,,0.00,TxWx,2013-01-30 09:11:00,
2013-01-30 03:14:00,65.0,42.0,29.83,NNE,22,6.0,7.0,43,0.00,,,0.00,TxWx,2013-01-30 09:14:00,
2013-01-30 03:16:00,65.0,39.0,29.83,NW,315,10.0,11.0,38,0.00,,,0.00,TxWx,2013-01-30 09:16:00,
2013-01-30 03:18:00,65.0,38.0,29.83,NNE,22,11.0,14.0,37,0.00,,,0.00,TxWx,2013-01-30 09:18:00,
2013-01-30 03:19:00,65.0,38.0,29.83,NNE,22,11.0,15.0,38,0.00,,,0.00,TxWx,2013-01-30 09:19:00,
2013-01-30 03:21:00,65.0,39.0,29.84,ENE,67,8.0,13.0,38,0.00,,,0.00,TxWx,2013-01-30 09:21:00,
2013-01-30 03:23:00,65.0,39.0,29.84,NNW,337,9.0,10.0,39,0.00,,,0.00,TxWx,2013-01-30 09:23:00,
2013-01-30 03:25:00,65.0,40.0,29.84,NE,45,9.0,9.0,40,0.00,,,0.00,TxWx,2013-01-30 09:25:00,
2013-01-30 03:26:00,65.0,40.0,29.84,North,0,5.0,6.0,40,0.00,,,0.00,TxWx,2013-01-30 09:26:00,
2013-01-30 03:28:00,65.0,40.0,29.84,North,0,10.0,10.0,41,0.00,,,0.00,TxWx,2013-01-30 09:28:00,
2013-01-30 03:31:00,64.0,40.0,29.84,NNW,337,11.0,13.0,42,0.00,,,0.00,TxWx,2013-01-30 09:31:00,
2013-01-30 03:32:00,64.0,40.0,29.84,NNE,22,11.0,11.0,41,0.00,,,0.00,TxWx,2013-01-30 09:32:00,
2013-01-30 03:36:00,64.0,41.0,29.84,NNE,22,8.0,10.0,43,0.00,,,0.00,TxWx,2013-01-30 09:36:00,
2013-01-30 03:37:00,64.0,40.0,29.84,NNE,22,6.0,7.0,42,0.00,,,0.00,TxWx,2013-01-30 09:37:00,
2013-01-30 03:38:00,64.0,39.0,29.85,North,0,11.0,16.0,40,0.00,,,0.00,TxWx,2013-01-30 09:38:00,
2013-01-30 03:41:00,64.0,39.0,29.84,NNE,22,13.0,13.0,40,0.00,,,0.00,TxWx,2013-01-30 09:41:00,
2013-01-30 03:43:00,64.0,40.0,29.84,NNW,337,14.0,18.0,42,0.00,,,0.00,TxWx,2013-01-30 09:43:00,
2013-01-30 03:44:00,64.0,40.0,29.84,WSW,247,5.0,6.0,41,0.00,,,0.00,TxWx,2013-01-30 09:44:00,
2013-01-30 03:45:00,64.0,40.0,29.85,NNE,22,11.0,11.0,41,0.00,,,0.00,TxWx,2013-01-30 09:45:00,
2013-01-30 03:47:00,64.0,39.0,29.84,North,0,11.0,11.0,41,0.00,,,0.00,TxWx,2013-01-30 09:47:00,
2013-01-30 03:48:00,64.0,38.0,29.84,NNW,337,16.0,17.0,38,0.00,,,0.00,TxWx,2013-01-30 09:48:00,
2013-01-30 03:49:00,64.0,35.0,29.85,NNW,337,13.0,13.0,35,0.00,,,0.00,TxWx,2013-01-30 09:49:00,
2013-01-30 03:52:00,64.0,35.0,29.85,North,0,11.0,11.0,34,0.00,,,0.00,TxWx,2013-01-30 09:52:00,
2013-01-30 03:54:00,64.0,33.0,29.85,NNW,337,11.0,14.0,32,0.00,,,0.00,TxWx,2013-01-30 09:54:00,
2013-01-30 03:55:00,64.0,33.0,29.85,North,0,13.0,13.0,32,0.00,,,0.00,TxWx,2013-01-30 09:55:00,
2013-01-30 03:58:00,64.0,33.0,29.85,NNE,22,10.0,10.0,32,0.00,,,0.00,TxWx,2013-01-30 09:58:00,
2013-01-30 04:02:00,64.0,33.0,29.85,ENE,67,15.0,15.0,32,0.00,,,0.00,TxWx,2013-01-30 10:02:00,
2013-01-30 04:03:00,64.0,33.0,29.85,North,0,11.0,12.0,32,0.00,,,0.00,TxWx,2013-01-30 10:03:00,
2013-01-30 04:06:00,64.0,33.0,29.85,NNW,337,11.0,14.0,31,0.00,,,0.00,TxWx,2013-01-30 10:06:00,
2013-01-30 04:07:00,64.0,33.0,29.85,NNE,22,7.0,7.0,32,0.00,,,0.00,TxWx,2013-01-30 10:07:00,
2013-01-30 04:08:00,64.0,33.0,29.85,North,0,10.0,10.0,32,0.00,,,0.00,TxWx,2013-01-30 10:08:00,
2013-01-30 04:12:00,64.0,30.0,29.85,North,0,10.0,10.0,30,0.00,,,0.00,TxWx,2013-01-30 10:12:00,
2013-01-30 04:13:00,64.0,31.0,29.85,NW,315,10.0,10.0,30,0.00,,,0.00,TxWx,2013-01-30 10:13:00,
2013-01-30 04:17:00,63.0,29.0,29.85,NNW,337,9.0,9.0,29,0.00,,,0.00,TxWx,2013-01-30 10:17:00,
2013-01-30 04:18:00,63.0,29.0,29.85,NNW,337,6.0,8.0,29,0.00,,,0.00,TxWx,2013-01-30 10:18:00,
2013-01-30 04:19:00,63.0,28.0,29.85,North,0,10.0,10.0,28,0.00,,,0.00,TxWx,2013-01-30 10:19:00,
2013-01-30 04:24:00,63.0,28.0,29.86,NE,45,12.0,12.0,28,0.00,,,0.00,TxWx,2013-01-30 10:24:00,
2013-01-30 04:25:00,63.0,27.0,29.86,North,0,10.0,10.0,27,0.00,,,0.00,TxWx,2013-01-30 10:25:00,
2013-01-30 04:30:00,63.0,26.0,29.87,NW,315,15.0,18.0,26,0.00,,,0.00,TxWx,2013-01-30 10:30:00,
2013-01-30 04:31:00,63.0,27.0,29.87,NNE,22,9.0,9.0,26,0.00,,,0.00,TxWx,2013-01-30 10:31:00,
2013-01-30 04:34:00,63.0,27.0,29.87,NNW,337,5.0,8.0,27,0.00,,,0.00,TxWx,2013-01-30 10:34:00,
2013-01-30 04:35:00,63.0,27.0,29.87,NNW,337,8.0,8.0,27,0.00,,,0.00,TxWx,2013-01-30 10:35:00,
2013-01-30 04:40:00,63.0,27.0,29.87,North,0,12.0,13.0,27,0.00,,,0.00,TxWx,2013-01-30 10:40:00,
2013-01-30 04:41:00,63.0,27.0,29.88,North,0,17.0,17.0,27,0.00,,,0.00,TxWx,2013-01-30 10:41:00,
2013-01-30 04:45:00,63.0,26.0,29.88,North,0,7.0,10.0,26,0.00,,,0.00,TxWx,2013-01-30 10:45:00,
2013-01-30 04:46:00,63.0,27.0,29.88,NNW,337,7.0,10.0,26,0.00,,,0.00,TxWx,2013-01-30 10:46:00,
2013-01-30 04:47:00,63.0,27.0,29.88,NNE,22,10.0,11.0,27,0.00,,,0.00,TxWx,2013-01-30 10:47:00,
2013-01-30 04:50:00,63.0,28.0,29.89,NE,45,17.0,17.0,28,0.00,,,0.00,TxWx,2013-01-30 10:50:00,
2013-01-30 04:51:00,63.0,28.0,29.89,NNW,337,7.0,8.0,28,0.00,,,0.00,TxWx,2013-01-30 10:51:00,
2013-01-30 04:52:00,63.0,28.0,29.89,North,0,13.0,13.0,28,0.00,,,0.00,TxWx,2013-01-30 10:52:00,
2013-01-30 04:53:00,63.0,28.0,29.89,NNW,337,13.0,13.0,28,0.00,,,0.00,TxWx,2013-01-30 10:53:00,
2013-01-30 04:55:00,62.0,27.0,29.89,NNW,337,10.0,11.0,28,0.00,,,0.00,TxWx,2013-01-30 10:55:00,
2013-01-30 04:58:00,62.0,29.0,29.89,NNW,337,3.0,4.0,30,0.00,,,0.00,TxWx,2013-01-30 10:58:00,
2013-01-30 04:59:00,62.0,29.0,29.89,NNE,22,7.0,8.0,30,0.00,,,0.00,TxWx,2013-01-30 10:59:00,
2013-01-30 05:00:00,62.0,29.0,29.89,NNE,22,10.0,10.0,30,0.00,,,0.00,TxWx,2013-01-30 11:00:00,
2013-01-30 05:04:00,62.0,27.0,29.89,NNE,22,11.0,11.0,28,0.00,,,0.00,TxWx,2013-01-30 11:04:00,
2013-01-30 05:05:00,62.0,27.0,29.89,North,0,11.0,14.0,28,0.00,,,0.00,TxWx,2013-01-30 11:05:00,
2013-01-30 05:10:00,62.0,28.0,29.89,NNW,337,5.0,5.0,29,0.00,,,0.00,TxWx,2013-01-30 11:10:00,
2013-01-30 05:11:00,62.0,27.0,29.89,NNW,337,8.0,11.0,28,0.00,,,0.00,TxWx,2013-01-30 11:11:00,
2013-01-30 05:12:00,62.0,28.0,29.89,North,0,4.0,5.0,29,0.00,,,0.00,TxWx,2013-01-30 11:12:00,
2013-01-30 05:16:00,61.0,25.0,29.90,NNW,337,13.0,13.0,27,0.00,,,0.00,TxWx,2013-01-30 11:16:00,
2013-01-30 05:17:00,61.0,24.0,29.90,North,0,18.0,18.0,25,0.00,,,0.00,TxWx,2013-01-30 11:17:00,
2013-01-30 05:18:00,61.0,23.0,29.89,NNW,337,11.0,11.0,25,0.00,,,0.00,TxWx,2013-01-30 11:18:00,
2013-01-30 05:21:00,61.0,23.0,29.90,North,0,18.0,18.0,25,0.00,,,0.00,TxWx,2013-01-30 11:21:00,
2013-01-30 05:23:00,61.0,24.0,29.90,North,0,6.0,6.0,26,0.00,,,0.00,TxWx,2013-01-30 11:23:00,
2013-01-30 05:24:00,61.0,24.0,29.90,NNW,337,8.0,8.0,26,0.00,,,0.00,TxWx,2013-01-30 11:24:00,
2013-01-30 05:25:00,61.0,24.0,29.90,NNW,337,10.0,11.0,26,0.00,,,0.00,TxWx,2013-01-30 11:25:00,
2013-01-30 05:26:00,61.0,24.0,29.90,NNW,337,10.0,10.0,26,0.00,,,0.00,TxWx,2013-01-30 11:26:00,
2013-01-30 05:30:00,61.0,24.0,29.90,NNW,337,10.0,10.0,26,0.00,,,0.00,TxWx,2013-01-30 11:30:00,
2013-01-30 05:32:00,61.0,24.0,29.90,NNW,337,11.0,11.0,26,0.00,,,0.00,TxWx,2013-01-30 11:32:00,
2013-01-30 05:33:00,61.0,24.0,29.90,NNW,337,10.0,13.0,26,0.00,,,0.00,TxWx,2013-01-30 11:33:00,
2013-01-30 05:36:00,61.0,24.0,29.90,NNE,22,16.0,23.0,26,0.00,,,0.00,TxWx,2013-01-30 11:36:00,
2013-01-30 05:37:00,61.0,24.0,29.90,NNW,337,18.0,18.0,26,0.00,,,0.00,TxWx,2013-01-30 11:37:00,
2013-01-30 05:39:00,61.0,25.0,29.90,NNW,337,9.0,9.0,26,0.00,,,0.00,TxWx,2013-01-30 11:39:00,
2013-01-30 05:42:00,61.0,24.0,29.91,NNE,22,7.0,9.0,26,0.00,,,0.00,TxWx,2013-01-30 11:42:00,
2013-01-30 05:43:00,61.0,24.0,29.91,NNW,337,12.0,13.0,26,0.00,,,0.00,TxWx,2013-01-30 11:43:00,
2013-01-30 05:47:00,60.0,24.0,29.91,WNW,292,14.0,14.0,26,0.00,,,0.00,TxWx,2013-01-30 11:47:00,
2013-01-30 05:48:00,60.0,23.0,29.91,NNE,22,20.0,20.0,26,0.00,,,0.00,TxWx,2013-01-30 11:48:00,
2013-01-30 05:53:00,60.0,24.0,29.91,North,0,7.0,8.0,26,0.00,,,0.00,TxWx,2013-01-30 11:53:00,
2013-01-30 05:54:00,60.0,23.0,29.91,NNW,337,10.0,10.0,26,0.00,,,0.00,TxWx,2013-01-30 11:54:00,
2013-01-30 05:55:00,60.0,24.0,29.91,North,0,10.0,13.0,26,0.00,,,0.00,TxWx,2013-01-30 11:55:00,
2013-01-30 05:59:00,60.0,23.0,29.92,NNE,22,18.0,18.0,26,0.00,,,0.00,TxWx,2013-01-30 11:59:00,
2013-01-30 06:01:00,60.0,24.0,29.92,NNW,337,5.0,5.0,26,0.00,,,0.00,TxWx,2013-01-30 12:01:00,
2013-01-30 06:02:00,60.0,23.0,29.92,NNW,337,13.0,14.0,26,0.00,,,0.00,TxWx,2013-01-30 12:02:00,
2013-01-30 06:05:00,60.0,23.0,29.93,NNW,337,11.0,13.0,25,0.00,,,0.00,TxWx,2013-01-30 12:05:00,
2013-01-30 06:06:00,60.0,23.0,29.93,NNE,22,15.0,15.0,25,0.00,,,0.00,TxWx,2013-01-30 12:06:00,
2013-01-30 06:07:00,60.0,23.0,29.93,NNE,22,7.0,7.0,25,0.00,,,0.00,TxWx,2013-01-30 12:07:00,
2013-01-30 06:10:00,60.0,23.0,29.93,NNW,337,7.0,7.0,26,0.00,,,0.00,TxWx,2013-01-30 12:10:00,
2013-01-30 06:12:00,60.0,23.0,29.93,NNW,337,18.0,18.0,26,0.00,,,0.00,TxWx,2013-01-30 12:12:00,
2013-01-30 06:13:00,60.0,23.0,29.93,NNW,337,7.0,8.0,25,0.00,,,0.00,TxWx,2013-01-30 12:13:00,
2013-01-30 06:16:00,60.0,23.0,29.94,NNW,337,14.0,18.0,26,0.00,,,0.00,TxWx,2013-01-30 12:16:00,
2013-01-30 06:17:00,60.0,23.0,29.94,NNW,337,19.0,20.0,25,0.00,,,0.00,TxWx,2013-01-30 12:17:00,
2013-01-30 06:19:00,60.0,23.0,29.94,NNW,337,7.0,7.0,25,0.00,,,0.00,TxWx,2013-01-30 12:19:00,
2013-01-30 06:20:00,60.0,23.0,29.94,NNW,337,16.0,18.0,25,0.00,,,0.00,TxWx,2013-01-30 12:20:00,
2013-01-30 06:22:00,60.0,23.0,29.94,NNW,337,15.0,15.0,25,0.00,,,0.00,TxWx,2013-01-30 12:22:00,
2013-01-30 06:23:00,60.0,23.0,29.94,NW,315,14.0,14.0,25,0.00,,,0.00,TxWx,2013-01-30 12:23:00,
2013-01-30 06:25:00,59.0,22.0,29.95,NNW,337,4.0,5.0,25,0.00,,,0.00,TxWx,2013-01-30 12:25:00,
2013-01-30 06:28:00,59.0,22.0,29.95,NNE,22,16.0,17.0,25,0.00,,,0.00,TxWx,2013-01-30 12:28:00,
2013-01-30 06:32:00,59.0,22.0,29.95,North,0,11.0,14.0,25,0.00,,,0.00,TxWx,2013-01-30 12:32:00,
2013-01-30 06:33:00,59.0,22.0,29.95,NNW,337,16.0,18.0,25,0.00,,,0.00,TxWx,2013-01-30 12:33:00,
2013-01-30 06:34:00,59.0,22.0,29.95,NW,315,9.0,9.0,25,0.00,,,0.00,TxWx,2013-01-30 12:34:00,
2013-01-30 06:37:00,59.0,23.0,29.95,NNW,337,10.0,10.0,26,0.00,,,0.00,TxWx,2013-01-30 12:37:00,
2013-01-30 06:38:00,59.0,22.0,29.95,North,0,8.0,8.0,25,0.00,,,0.00,TxWx,2013-01-30 12:38:00,
2013-01-30 06:39:00,59.0,23.0,29.96,North,0,13.0,14.0,26,0.00,,,0.00,TxWx,2013-01-30 12:39:00,
2013-01-30 06:42:00,59.0,23.0,29.96,NNE,22,10.0,11.0,26,0.00,,,0.00,TxWx,2013-01-30 12:42:00,
2013-01-30 06:43:00,59.0,23.0,29.95,North,0,10.0,10.0,26,0.00,,,0.00,TxWx,2013-01-30 12:43:00,
2013-01-30 06:44:00,59.0,23.0,29.96,North,0,18.0,18.0,26,0.00,,,0.00,TxWx,2013-01-30 12:44:00,
2013-01-30 06:46:00,59.0,23.0,29.96,NNW,337,10.0,10.0,26,0.00,,,0.00,TxWx,2013-01-30 12:46:00,
2013-01-30 06:49:00,59.0,23.0,29.96,WNW,292,5.0,7.0,26,0.00,,,0.00,TxWx,2013-01-30 12:49:00,
2013-01-30 06:51:00,59.0,23.0,29.97,NNW,337,11.0,16.0,26,0.00,,,0.00,TxWx,2013-01-30 12:51:00,
2013-01-30 06:52:00,59.0,23.0,29.97,North,0,10.0,10.0,26,0.00,,,0.00,TxWx,2013-01-30 12:52:00,
2013-01-30 06:56:00,59.0,23.0,29.97,NNW,337,12.0,14.0,26,0.00,,,0.00,TxWx,2013-01-30 12:56:00,
2013-01-30 06:57:00,59.0,23.0,29.97,NW,315,6.0,7.0,26,0.00,,,0.00,TxWx,2013-01-30 12:57:00,
2013-01-30 06:58:00,58.0,22.0,29.97,NNW,337,13.0,14.0,26,0.00,,,0.00,TxWx,2013-01-30 12:58:00,
2013-01-30 07:01:00,58.0,22.0,29.98,NNW,337,8.0,8.0,26,0.00,,,0.00,TxWx,2013-01-30 13:01:00,
2013-01-30 07:04:00,58.0,23.0,29.98,NNW,337,10.0,10.0,27,0.00,,,0.00,TxWx,2013-01-30 13:04:00,
2013-01-30 07:05:00,58.0,23.0,29.98,North,0,14.0,14.0,27,0.00,,,0.00,TxWx,2013-01-30 13:05:00,
2013-01-30 07:07:00,58.0,23.0,29.98,North,0,8.0,8.0,27,0.00,,,0.00,TxWx,2013-01-30 13:07:00,
2013-01-30 07:10:00,58.0,24.0,29.99,NNW,337,6.0,6.0,28,0.00,,,0.00,TxWx,2013-01-30 13:10:00,
2013-01-30 07:11:00,58.0,24.0,29.99,NNW,337,4.0,5.0,28,0.00,,,0.00,TxWx,2013-01-30 13:11:00,
2013-01-30 07:12:00,58.0,24.0,29.98,NNW,337,4.0,4.0,28,0.00,,,0.00,TxWx,2013-01-30 13:12:00,
2013-01-30 07:13:00,58.0,24.0,29.99,NNE,22,6.0,6.0,28,0.00,,,0.00,TxWx,2013-01-30 13:13:00,
2013-01-30 07:16:00,58.0,24.0,29.99,NNW,337,10.0,10.0,28,0.00,,,0.00,TxWx,2013-01-30 13:16:00,
2013-01-30 07:17:00,58.0,24.0,29.99,NNW,337,8.0,8.0,29,0.00,,,0.00,TxWx,2013-01-30 13:17:00,
2013-01-30 07:18:00,58.0,24.0,29.99,NNW,337,10.0,10.0,29,0.00,,,0.00,TxWx,2013-01-30 13:18:00,
2013-01-30 07:19:00,58.0,24.0,29.99,NNW,337,10.0,12.0,29,0.00,,,0.00,TxWx,2013-01-30 13:19:00,
2013-01-30 07:22:00,58.0,24.0,29.99,North,0,6.0,8.0,28,0.00,,,0.00,TxWx,2013-01-30 13:22:00,
2013-01-30 07:23:00,58.0,24.0,29.99,NNW,337,8.0,8.0,28,0.00,,,0.00,TxWx,2013-01-30 13:23:00,
2013-01-30 07:24:00,58.0,24.0,29.99,NNW,337,8.0,8.0,29,0.00,,,0.00,TxWx,2013-01-30 13:24:00,
2013-01-30 07:27:00,58.0,25.0,29.99,NNW,337,8.0,8.0,29,0.00,,,0.00,TxWx,2013-01-30 13:27:00,
2013-01-30 07:28:00,58.0,25.0,30.00,North,0,12.0,14.0,29,0.00,,,0.00,TxWx,2013-01-30 13:28:00,
2013-01-30 07:31:00,57.0,24.0,30.00,NNW,337,6.0,6.0,30,0.00,,,0.00,TxWx,2013-01-30 13:31:00,
2013-01-30 07:32:00,57.0,24.0,30.00,NNW,337,13.0,15.0,30,0.00,,,0.00,TxWx,2013-01-30 13:32:00,
2013-01-30 07:33:00,57.0,24.0,30.00,North,0,13.0,13.0,30,0.00,,,0.00,TxWx,2013-01-30 13:33:00,
2013-01-30 07:34:00,57.0,24.0,30.00,North,0,8.0,9.0,30,0.00,,,0.00,TxWx,2013-01-30 13:34:00,
2013-01-30 07:37:00,57.0,25.0,30.00,North,0,8.0,8.0,30,0.00,,,0.00,TxWx,2013-01-30 13:37:00,
2013-01-30 07:39:00,58.0,25.0,29.99,NNW,337,11.0,14.0,29,0.00,,,0.00,TxWx,2013-01-30 13:39:00,
2013-01-30 07:41:00,57.0,24.0,30.00,NNW,337,10.0,10.0,29,0.00,,,0.00,TxWx,2013-01-30 13:41:00,
2013-01-30 07:42:00,57.0,24.0,30.00,NNW,337,10.0,10.0,29,0.00,,,0.00,TxWx,2013-01-30 13:42:00,
2013-01-30 07:45:00,57.0,25.0,30.00,NW,315,10.0,10.0,30,0.00,,,0.00,TxWx,2013-01-30 13:45:00,
2013-01-30 07:47:00,57.0,24.0,30.00,NNE,22,3.0,3.0,30,0.00,,,0.00,TxWx,2013-01-30 13:47:00,
2013-01-30 07:48:00,57.0,25.0,30.00,NW,315,8.0,9.0,30,0.00,,,0.00,TxWx,2013-01-30 13:48:00,
2013-01-30 07:49:00,58.0,26.0,30.00,NNW,337,12.0,15.0,30,0.00,,,0.00,TxWx,2013-01-30 13:49:00,
2013-01-30 07:52:00,58.0,26.0,30.01,NW,315,8.0,10.0,30,0.00,,,0.00,TxWx,2013-01-30 13:52:00,
2013-01-30 07:54:00,58.0,25.0,30.01,NNW,337,15.0,18.0,29,0.00,,,0.00,TxWx,2013-01-30 13:54:00,
2013-01-30 07:56:00,58.0,26.0,30.01,NNW,337,10.0,10.0,30,0.00,,,0.00,TxWx,2013-01-30 13:56:00,
2013-01-30 07:58:00,58.0,26.0,30.01,NNW,337,6.0,8.0,31,0.00,,,0.00,TxWx,2013-01-30 13:58:00,
2013-01-30 08:01:00,58.0,25.0,30.01,NNW,337,11.0,11.0,30,0.00,,,0.00,TxWx,2013-01-30 14:01:00,
2013-01-30 08:03:00,58.0,26.0,30.01,North,0,8.0,9.0,30,0.00,,,0.00,TxWx,2013-01-30 14:03:00,
2013-01-30 08:07:00,58.0,26.0,30.01,NNW,337,9.0,13.0,30,0.00,,,0.00,TxWx,2013-01-30 14:07:00,
2013-01-30 08:08:00,58.0,26.0,30.01,NNW,337,6.0,7.0,30,0.00,,,0.00,TxWx,2013-01-30 14:08:00,
2013-01-30 08:09:00,58.0,26.0,30.01,NNW,337,11.0,13.0,30,0.00,,,0.00,TxWx,2013-01-30 14:09:00,
2013-01-30 08:13:00,57.0,25.0,30.02,NE,45,6.0,8.0,31,0.00,,,0.00,TxWx,2013-01-30 14:13:00,
2013-01-30 08:14:00,57.0,25.0,30.02,NW,315,11.0,13.0,31,0.00,,,0.00,TxWx,2013-01-30 14:14:00,
2013-01-30 08:20:00,57.0,25.0,30.03,NW,315,10.0,10.0,31,0.00,,,0.00,TxWx,2013-01-30 14:20:00,
2013-01-30 08:21:00,57.0,26.0,30.03,North,0,15.0,15.0,31,0.00,,,0.00,TxWx,2013-01-30 14:21:00,
2013-01-30 08:26:00,58.0,26.0,30.03,NW,315,8.0,10.0,31,0.00,,,0.00,TxWx,2013-01-30 14:26:00,
2013-01-30 08:27:00,58.0,26.0,30.03,NNW,337,10.0,10.0,31,0.00,,,0.00,TxWx,2013-01-30 14:27:00,
2013-01-30 08:28:00,58.0,26.0,30.03,North,0,13.0,14.0,31,0.00,,,0.00,TxWx,2013-01-30 14:28:00,
2013-01-30 08:31:00,58.0,26.0,30.03,NW,315,10.0,10.0,31,0.00,,,0.00,TxWx,2013-01-30 14:31:00,
2013-01-30 08:32:00,58.0,26.0,30.03,NNW,337,14.0,14.0,30,0.00,,,0.00,TxWx,2013-01-30 14:32:00,
2013-01-30 08:33:00,58.0,26.0,30.03,NNW,337,19.0,19.0,30,0.00,,,0.00,TxWx,2013-01-30 14:33:00,
2013-01-30 08:36:00,58.0,26.0,30.03,NNW,337,9.0,9.0,30,0.00,,,0.00,TxWx,2013-01-30 14:36:00,
2013-01-30 08:37:00,58.0,26.0,30.03,NNW,337,6.0,6.0,31,0.00,,,0.00,TxWx,2013-01-30 14:37:00,
2013-01-30 08:38:00,58.0,26.0,30.03,NNW,337,13.0,14.0,30,0.00,,,0.00,TxWx,2013-01-30 14:38:00,
2013-01-30 08:39:00,58.0,26.0,30.03,North,0,9.0,9.0,30,0.00,,,0.00,TxWx,2013-01-30 14:39:00,
2013-01-30 08:41:00,58.0,26.0,30.03,NNW,337,9.0,9.0,30,0.00,,,0.00,TxWx,2013-01-30 14:41:00,
2013-01-30 08:42:00,58.0,26.0,30.04,WNW,292,5.0,5.0,30,0.00,,,0.00,TxWx,2013-01-30 14:42:00,
2013-01-30 08:43:00,58.0,26.0,30.04,NNW,337,8.0,10.0,30,0.00,,,0.00,TxWx,2013-01-30 14:43:00,
2013-01-30 08:45:00,58.0,25.0,30.04,NNW,337,15.0,18.0,30,0.00,,,0.00,TxWx,2013-01-30 14:45:00,
2013-01-30 08:47:00,58.0,25.0,30.04,NNW,337,12.0,12.0,30,0.00,,,0.00,TxWx,2013-01-30 14:47:00,
2013-01-30 08:51:00,58.0,26.0,30.04,NNW,337,13.0,13.0,31,0.00,,,0.00,TxWx,2013-01-30 14:51:00,
2013-01-30 08:52:00,58.0,26.0,30.04,NNW,337,10.0,11.0,31,0.00,,,0.00,TxWx,2013-01-30 14:52:00,
2013-01-30 08:53:00,58.0,26.0,30.04,NNW,337,6.0,6.0,31,0.00,,,0.00,TxWx,2013-01-30 14:53:00,
2013-01-30 08:56:00,58.0,26.0,30.04,NW,315,11.0,11.0,30,0.00,,,0.00,TxWx,2013-01-30 14:56:00,
2013-01-30 08:57:00,58.0,26.0,30.05,NNE,22,8.0,8.0,31,0.00,,,0.00,TxWx,2013-01-30 14:57:00,
2013-01-30 08:58:00,58.0,26.0,30.05,NNW,337,8.0,8.0,31,0.00,,,0.00,TxWx,2013-01-30 14:58:00,
2013-01-30 09:01:00,58.0,26.0,30.05,NW,315,6.0,6.0,31,0.00,,,0.00,TxWx,2013-01-30 15:01:00,
2013-01-30 09:02:00,58.0,26.0,30.05,NNW,337,10.0,10.0,30,0.00,,,0.00,TxWx,2013-01-30 15:02:00,
2013-01-30 09:03:00,58.0,25.0,30.05,NW,315,15.0,18.0,30,0.00,,,0.00,TxWx,2013-01-30 15:03:00,
2013-01-30 09:04:00,58.0,26.0,30.05,NNW,337,16.0,16.0,31,0.00,,,0.00,TxWx,2013-01-30 15:04:00,
2013-01-30 09:07:00,58.0,25.0,30.06,NW,315,14.0,20.0,30,0.00,,,0.00,TxWx,2013-01-30 15:07:00,
2013-01-30 09:09:00,58.0,26.0,30.06,NNW,337,10.0,10.0,30,0.00,,,0.00,TxWx,2013-01-30 15:09:00,
2013-01-30 09:10:00,58.0,26.0,30.06,NNW,337,17.0,17.0,31,0.00,,,0.00,TxWx,2013-01-30 15:10:00,
2013-01-30 09:12:00,58.0,26.0,30.06,NNW,337,7.0,8.0,31,0.00,,,0.00,TxWx,2013-01-30 15:12:00,
2013-01-30 09:14:00,58.0,26.0,30.06,NNW,337,7.0,7.0,31,0.00,,,0.00,TxWx,2013-01-30 15:14:00,
2013-01-30 09:15:00,59.0,27.0,30.07,NNW,337,10.0,11.0,31,0.00,,,0.00,TxWx,2013-01-30 15:15:00,
2013-01-30 09:16:00,58.0,26.0,30.07,NNW,337,19.0,19.0,31,0.00,,,0.00,TxWx,2013-01-30 15:16:00,
2013-01-30 09:19:00,59.0,27.0,30.07,NW,315,8.0,8.0,31,0.00,,,0.00,TxWx,2013-01-30 15:19:00,
2013-01-30 09:20:00,59.0,27.0,30.07,NNW,337,11.0,13.0,31,0.00,,,0.00,TxWx,2013-01-30 15:20:00,
2013-01-30 09:21:00,59.0,27.0,30.07,NNW,337,8.0,8.0,31,0.00,,,0.00,TxWx,2013-01-30 15:21:00,
2013-01-30 09:23:00,59.0,25.0,30.07,North,0,15.0,15.0,29,0.00,,,0.00,TxWx,2013-01-30 15:23:00,
2013-01-30 09:26:00,59.0,24.0,30.08,NNW,337,10.0,10.0,28,0.00,,,0.00,TxWx,2013-01-30 15:26:00,
2013-01-30 09:28:00,59.0,24.0,30.07,NNE,22,16.0,16.0,27,0.00,,,0.00,TxWx,2013-01-30 15:28:00,
2013-01-30 09:31:00,59.0,24.0,30.08,NNW,337,7.0,10.0,27,0.00,,,0.00,TxWx,2013-01-30 15:31:00,
2013-01-30 09:32:00,59.0,24.0,30.08,NNW,337,13.0,15.0,27,0.00,,,0.00,TxWx,2013-01-30 15:32:00,
2013-01-30 09:34:00,59.0,25.0,30.08,North,0,18.0,18.0,28,0.00,,,0.00,TxWx,2013-01-30 15:34:00,
2013-01-30 09:37:00,59.0,24.0,30.08,NNW,337,11.0,13.0,28,0.00,,,0.00,TxWx,2013-01-30 15:37:00,
2013-01-30 09:40:00,59.0,23.0,30.08,NNW,337,13.0,14.0,26,0.00,,,0.00,TxWx,2013-01-30 15:40:00,
2013-01-30 09:42:00,59.0,23.0,30.08,NNW,337,8.0,10.0,26,0.00,,,0.00,TxWx,2013-01-30 15:42:00,
2013-01-30 09:43:00,59.0,22.0,30.08,NNW,337,19.0,19.0,25,0.00,,,0.00,TxWx,2013-01-30 15:43:00,
2013-01-30 09:46:00,59.0,22.0,30.08,NNW,337,20.0,28.0,25,0.00,,,0.00,TxWx,2013-01-30 15:46:00,
2013-01-30 09:48:00,59.0,22.0,30.08,North,0,11.0,11.0,25,0.00,,,0.00,TxWx,2013-01-30 15:48:00,
2013-01-30 09:49:00,59.0,22.0,30.08,NW,315,18.0,18.0,25,0.00,,,0.00,TxWx,2013-01-30 15:49:00,
2013-01-30 09:52:00,59.0,23.0,30.08,NNW,337,14.0,14.0,26,0.00,,,0.00,TxWx,2013-01-30 15:52:00,
2013-01-30 09:54:00,60.0,24.0,30.08,NW,315,11.0,18.0,26,0.00,,,0.00,TxWx,2013-01-30 15:54:00,
2013-01-30 09:56:00,60.0,22.0,30.08,NNW,337,17.0,17.0,24,0.00,,,0.00,TxWx,2013-01-30 15:56:00,
2013-01-30 09:57:00,60.0,22.0,30.09,North,0,17.0,19.0,24,0.00,,,0.00,TxWx,2013-01-30 15:57:00,
2013-01-30 09:59:00,60.0,23.0,30.09,NW,315,15.0,15.0,25,0.00,,,0.00,TxWx,2013-01-30 15:59:00,
2013-01-30 10:02:00,60.0,22.0,30.09,NW,315,15.0,16.0,24,0.00,,,0.00,TxWx,2013-01-30 16:02:00,
2013-01-30 10:04:00,60.0,23.0,30.09,North,0,7.0,7.0,25,0.00,,,0.00,TxWx,2013-01-30 16:04:00,
2013-01-30 10:05:00,60.0,23.0,30.09,North,0,16.0,16.0,25,0.00,,,0.00,TxWx,2013-01-30 16:05:00,
2013-01-30 10:08:00,60.0,21.0,30.09,NNW,337,34.0,34.0,23,0.00,,,0.00,TxWx,2013-01-30 16:08:00,
2013-01-30 10:09:00,60.0,21.0,30.09,NNW,337,21.0,21.0,23,0.00,,,0.00,TxWx,2013-01-30 16:09:00,
2013-01-30 10:10:00,60.0,22.0,30.09,WSW,247,6.0,6.0,24,0.00,,,0.00,TxWx,2013-01-30 16:10:00,
2013-01-30 10:11:00,60.0,21.0,30.09,NNE,22,23.0,32.0,23,0.00,,,0.00,TxWx,2013-01-30 16:11:00,
2013-01-30 10:14:00,60.0,21.0,30.09,NNW,337,14.0,14.0,23,0.00,,,0.00,TxWx,2013-01-30 16:14:00,
2013-01-30 10:16:00,60.0,21.0,30.09,WNW,292,23.0,25.0,23,0.00,,,0.00,TxWx,2013-01-30 16:16:00,
2013-01-30 10:17:00,60.0,21.0,30.09,NNW,337,14.0,17.0,23,0.00,,,0.00,TxWx,2013-01-30 16:17:00,
2013-01-30 10:20:00,60.0,19.0,30.09,NNW,337,12.0,12.0,22,0.00,,,0.00,TxWx,2013-01-30 16:20:00,
2013-01-30 10:21:00,60.0,19.0,30.09,NNW,337,27.0,27.0,22,0.00,,,0.00,TxWx,2013-01-30 16:21:00,
2013-01-30 10:22:00,60.0,20.0,30.10,NNW,337,22.0,24.0,22,0.00,,,0.00,TxWx,2013-01-30 16:22:00,
2013-01-30 10:24:00,60.0,21.0,30.09,NNW,337,19.0,21.0,23,0.00,,,0.00,TxWx,2013-01-30 16:24:00,
2013-01-30 10:26:00,60.0,21.0,30.09,NNW,337,20.0,21.0,23,0.00,,,0.00,TxWx,2013-01-30 16:26:00,
2013-01-30 10:27:00,60.0,21.0,30.09,NNW,337,17.0,17.0,23,0.00,,,0.00,TxWx,2013-01-30 16:27:00,
2013-01-30 10:29:00,60.0,20.0,30.09,NNW,337,15.0,17.0,22,0.00,,,0.00,TxWx,2013-01-30 16:29:00,
2013-01-30 10:31:00,61.0,21.0,30.09,WNW,292,13.0,17.0,22,0.00,,,0.00,TxWx,2013-01-30 16:31:00,
2013-01-30 10:32:00,61.0,21.0,30.09,NNW,337,16.0,16.0,22,0.00,,,0.00,TxWx,2013-01-30 16:32:00,
2013-01-30 10:33:00,61.0,21.0,30.10,NNW,337,9.0,12.0,23,0.00,,,0.00,TxWx,2013-01-30 16:33:00,
2013-01-30 10:35:00,61.0,20.0,30.10,NE,45,18.0,23.0,22,0.00,,,0.00,TxWx,2013-01-30 16:35:00,
2013-01-30 10:37:00,61.0,20.0,30.10,NW,315,15.0,15.0,22,0.00,,,0.00,TxWx,2013-01-30 16:37:00,
2013-01-30 10:38:00,60.0,18.0,30.10,NNW,337,23.0,29.0,21,0.00,,,0.00,TxWx,2013-01-30 16:38:00,
2013-01-30 10:41:00,61.0,20.0,30.10,NNW,337,20.0,22.0,21,0.00,,,0.00,TxWx,2013-01-30 16:41:00,
2013-01-30 10:42:00,61.0,20.0,30.10,NNW,337,10.0,13.0,22,0.00,,,0.00,TxWx,2013-01-30 16:42:00,
2013-01-30 10:44:00,61.0,20.0,30.10,NNW,337,21.0,21.0,22,0.00,,,0.00,TxWx,2013-01-30 16:44:00,
2013-01-30 10:46:00,61.0,19.0,30.10,NW,315,17.0,19.0,21,0.00,,,0.00,TxWx,2013-01-30 16:46:00,
2013-01-30 10:48:00,61.0,20.0,30.10,NNW,337,18.0,18.0,21,0.00,,,0.00,TxWx,2013-01-30 16:48:00,
2013-01-30 10:51:00,61.0,20.0,30.10,NNE,22,9.0,13.0,21,0.00,,,0.00,TxWx,2013-01-30 16:51:00,
2013-01-30 10:54:00,61.0,19.0,30.10,NNW,337,24.0,24.0,20,0.00,,,0.00,TxWx,2013-01-30 16:54:00,
2013-01-30 10:55:00,61.0,20.0,30.10,NW,315,10.0,11.0,21,0.00,,,0.00,TxWx,2013-01-30 16:55:00,
2013-01-30 10:57:00,61.0,19.0,30.10,NW,315,18.0,19.0,20,0.00,,,0.00,TxWx,2013-01-30 16:57:00,
2013-01-30 10:59:00,61.0,20.0,30.11,North,0,16.0,20.0,21,0.00,,,0.00,TxWx,2013-01-30 16:59:00,
2013-01-30 11:00:00,61.0,19.0,30.10,NNW,337,24.0,26.0,21,0.00,,,0.00,TxWx,2013-01-30 17:00:00,
2013-01-30 11:02:00,61.0,19.0,30.11,NNW,337,23.0,27.0,21,0.00,,,0.00,TxWx,2013-01-30 17:02:00,
2013-01-30 11:04:00,61.0,20.0,30.10,NNW,337,11.0,15.0,21,0.00,,,0.00,TxWx,2013-01-30 17:04:00,
2013-01-30 11:05:00,62.0,21.0,30.10,North,0,18.0,19.0,22,0.00,,,0.00,TxWx,2013-01-30 17:05:00,
2013-01-30 11:06:00,61.0,20.0,30.11,NNW,337,21.0,25.0,21,0.00,,,0.00,TxWx,2013-01-30 17:06:00,
2013-01-30 11:07:00,61.0,20.0,30.10,NNW,337,14.0,17.0,21,0.00,,,0.00,TxWx,2013-01-30 17:07:00,
2013-01-30 11:11:00,61.0,20.0,30.11,NW,315,18.0,18.0,21,0.00,,,0.00,TxWx,2013-01-30 17:11:00,
2013-01-30 11:12:00,61.0,20.0,30.10,NNW,337,14.0,14.0,22,0.00,,,0.00,TxWx,2013-01-30 17:12:00,
2013-01-30 11:16:00,61.0,20.0,30.11,North,0,17.0,21.0,21,0.00,,,0.00,TxWx,2013-01-30 17:16:00,
2013-01-30 11:18:00,62.0,22.0,30.11,NW,315,14.0,14.0,22,0.00,,,0.00,TxWx,2013-01-30 17:18:00,
2013-01-30 11:20:00,62.0,21.0,30.10,WNW,292,10.0,13.0,21,0.00,,,0.00,TxWx,2013-01-30 17:20:00,
2013-01-30 11:21:00,61.0,19.0,30.11,NNW,337,17.0,18.0,21,0.00,,,0.00,TxWx,2013-01-30 17:21:00,
2013-01-30 11:24:00,62.0,21.0,30.10,NNW,337,13.0,16.0,21,0.00,,,0.00,TxWx,2013-01-30 17:24:00,
2013-01-30 11:27:00,61.0,19.0,30.11,NE,45,18.0,23.0,21,0.00,,,0.00,TxWx,2013-01-30 17:27:00,
2013-01-30 11:29:00,62.0,22.0,30.10,North,0,21.0,21.0,22,0.00,,,0.00,TxWx,2013-01-30 17:29:00,
2013-01-30 11:32:00,63.0,24.0,30.11,NNW,337,11.0,12.0,23,0.00,,,0.00,TxWx,2013-01-30 17:32:00,
2013-01-30 11:33:00,63.0,22.0,30.11,NNW,337,23.0,23.0,22,0.00,,,0.00,TxWx,2013-01-30 17:33:00,
2013-01-30 11:34:00,62.0,21.0,30.11,NNW,337,16.0,16.0,21,0.00,,,0.00,TxWx,2013-01-30 17:34:00,
2013-01-30 11:35:00,62.0,21.0,30.10,NNW,337,15.0,15.0,22,0.00,,,0.00,TxWx,2013-01-30 17:35:00,
2013-01-30 11:37:00,62.0,22.0,30.10,NNW,337,11.0,11.0,22,0.00,,,0.00,TxWx,2013-01-30 17:37:00,
2013-01-30 11:39:00,62.0,21.0,30.10,NW,315,21.0,21.0,22,0.00,,,0.00,TxWx,2013-01-30 17:39:00,
2013-01-30 11:41:00,62.0,21.0,30.11,NNW,337,25.0,25.0,22,0.00,,,0.00,TxWx,2013-01-30 17:41:00,
2013-01-30 11:43:00,62.0,21.0,30.10,NNE,22,12.0,12.0,22,0.00,,,0.00,TxWx,2013-01-30 17:43:00,
2013-01-30 11:44:00,62.0,21.0,30.10,NNE,22,14.0,16.0,22,0.00,,,0.00,TxWx,2013-01-30 17:44:00,
2013-01-30 11:46:00,62.0,21.0,30.10,NNW,337,10.0,10.0,22,0.00,,,0.00,TxWx,2013-01-30 17:46:00,
2013-01-30 11:49:00,62.0,20.0,30.10,North,0,16.0,16.0,21,0.00,,,0.00,TxWx,2013-01-30 17:49:00,
2013-01-30 11:51:00,62.0,19.0,30.09,NNW,337,14.0,14.0,20,0.00,,,0.00,TxWx,2013-01-30 17:51:00,
2013-01-30 11:54:00,63.0,21.0,30.10,NNW,337,6.0,6.0,21,0.00,,,0.00,TxWx,2013-01-30 17:54:00,
2013-01-30 11:57:00,64.0,23.0,30.10,NNW,337,11.0,11.0,22,0.00,,,0.00,TxWx,2013-01-30 17:57:00,
2013-01-30 11:58:00,64.0,22.0,30.10,NNW,337,14.0,18.0,21,0.00,,,0.00,TxWx,2013-01-30 17:58:00,
2013-01-30 12:00:00,63.0,20.0,30.09,North,0,14.0,16.0,20,0.00,,,0.00,TxWx,2013-01-30 18:00:00,
2013-01-30 12:01:00,64.0,22.0,30.09,NNW,337,11.0,11.0,21,0.00,,,0.00,TxWx,2013-01-30 18:01:00,
2013-01-30 12:03:00,63.0,19.0,30.09,NW,315,11.0,18.0,19,0.00,,,0.00,TxWx,2013-01-30 18:03:00,
2013-01-30 12:05:00,63.0,19.0,30.09,North,0,13.0,14.0,19,0.00,,,0.00,TxWx,2013-01-30 18:05:00,
2013-01-30 12:06:00,63.0,20.0,30.09,NNW,337,14.0,14.0,20,0.00,,,0.00,TxWx,2013-01-30 18:06:00,
2013-01-30 12:10:00,64.0,22.0,30.09,North,0,12.0,12.0,21,0.00,,,0.00,TxWx,2013-01-30 18:10:00,
2013-01-30 12:11:00,64.0,22.0,30.09,NNW,337,11.0,11.0,21,0.00,,,0.00,TxWx,2013-01-30 18:11:00,
2013-01-30 12:12:00,63.0,19.0,30.09,North,0,17.0,19.0,19,0.00,,,0.00,TxWx,2013-01-30 18:12:00,
2013-01-30 12:13:00,63.0,19.0,30.09,West,270,11.0,13.0,19,0.00,,,0.00,TxWx,2013-01-30 18:13:00,
2013-01-30 12:16:00,63.0,19.0,30.08,NW,315,16.0,23.0,19,0.00,,,0.00,TxWx,2013-01-30 18:16:00,
2013-01-30 12:18:00,64.0,20.0,30.08,WNW,292,14.0,14.0,19,0.00,,,0.00,TxWx,2013-01-30 18:18:00,
2013-01-30 12:19:00,63.0,18.0,30.08,NNW,337,19.0,20.0,19,0.00,,,0.00,TxWx,2013-01-30 18:19:00,
2013-01-30 12:23:00,63.0,20.0,30.08,WNW,292,10.0,11.0,20,0.00,,,0.00,TxWx,2013-01-30 18:23:00,
2013-01-30 12:24:00,64.0,22.0,30.08,WSW,247,8.0,11.0,21,0.00,,,0.00,TxWx,2013-01-30 18:24:00,
2013-01-30 12:25:00,64.0,21.0,30.08,NNW,337,13.0,16.0,20,0.00,,,0.00,TxWx,2013-01-30 18:25:00,
2013-01-30 12:26:00,64.0,21.0,30.08,NW,315,15.0,15.0,20,0.00,,,0.00,TxWx,2013-01-30 18:26:00,
2013-01-30 12:30:00,63.0,20.0,30.08,NNW,337,19.0,19.0,20,0.00,,,0.00,TxWx,2013-01-30 18:30:00,
2013-01-30 12:31:00,63.0,20.0,30.08,North,0,11.0,15.0,20,0.00,,,0.00,TxWx,2013-01-30 18:31:00,
2013-01-30 12:35:00,64.0,22.0,30.07,NW,315,10.0,14.0,21,0.00,,,0.00,TxWx,2013-01-30 18:35:00,
2013-01-30 12:37:00,64.0,22.0,30.08,NNW,337,13.0,13.0,21,0.00,,,0.00,TxWx,2013-01-30 18:37:00,
2013-01-30 12:38:00,64.0,22.0,30.08,NNW,337,8.0,8.0,21,0.00,,,0.00,TxWx,2013-01-30 18:38:00,
2013-01-30 12:40:00,63.0,20.0,30.08,NNW,337,13.0,16.0,20,0.00,,,0.00,TxWx,2013-01-30 18:40:00,
2013-01-30 12:42:00,64.0,22.0,30.08,NNW,337,6.0,6.0,21,0.00,,,0.00,TxWx,2013-01-30 18:42:00,
2013-01-30 12:43:00,64.0,21.0,30.08,NNW,337,12.0,13.0,20,0.00,,,0.00,TxWx,2013-01-30 18:43:00,
2013-01-30 12:46:00,63.0,19.0,30.07,WNW,292,16.0,16.0,19,0.00,,,0.00,TxWx,2013-01-30 18:46:00,
2013-01-30 12:48:00,63.0,20.0,30.07,North,0,10.0,10.0,20,0.00,,,0.00,TxWx,2013-01-30 18:48:00,
2013-01-30 12:49:00,64.0,21.0,30.07,North,0,12.0,14.0,20,0.00,,,0.00,TxWx,2013-01-30 18:49:00,
2013-01-30 12:52:00,64.0,23.0,30.07,NNW,337,9.0,9.0,22,0.00,,,0.00,TxWx,2013-01-30 18:52:00,
2013-01-30 12:54:00,64.0,22.0,30.07,North,0,11.0,13.0,21,0.00,,,0.00,TxWx,2013-01-30 18:54:00,
2013-01-30 12:55:00,64.0,22.0,30.07,NNE,22,16.0,16.0,21,0.00,,,0.00,TxWx,2013-01-30 18:55:00,
2013-01-30 12:57:00,63.0,20.0,30.07,NNE,22,10.0,10.0,20,0.00,,,0.00,TxWx,2013-01-30 18:57:00,
2013-01-30 12:59:00,64.0,22.0,30.07,NNW,337,22.0,26.0,21,0.00,,,0.00,TxWx,2013-01-30 18:59:00,
2013-01-30 13:00:00,64.0,22.0,30.07,NW,315,20.0,21.0,21,0.00,,,0.00,TxWx,2013-01-30 19:00:00,
2013-01-30 13:02:00,64.0,21.0,30.07,NW,315,11.0,11.0,20,0.00,,,0.00,TxWx,2013-01-30 19:02:00,
2013-01-30 13:05:00,64.0,21.0,30.07,North,0,14.0,14.0,21,0.00,,,0.00,TxWx,2013-01-30 19:05:00,
2013-01-30 13:07:00,64.0,20.0,30.07,North,0,10.0,13.0,20,0.00,,,0.00,TxWx,2013-01-30 19:07:00,
2013-01-30 13:08:00,64.0,21.0,30.06,NNW,337,14.0,14.0,20,0.00,,,0.00,TxWx,2013-01-30 19:08:00,
2013-01-30 13:10:00,64.0,22.0,30.07,NE,45,11.0,12.0,21,0.00,,,0.00,TxWx,2013-01-30 19:10:00,
2013-01-30 13:11:00,64.0,20.0,30.07,NW,315,9.0,13.0,20,0.00,,,0.00,TxWx,2013-01-30 19:11:00,
2013-01-30 13:14:00,64.0,20.0,30.07,North,0,18.0,18.0,19,0.00,,,0.00,TxWx,2013-01-30 19:14:00,
2013-01-30 13:19:00,64.0,18.0,30.06,NNW,337,25.0,25.0,18,0.00,,,0.00,TxWx,2013-01-30 19:19:00,
2013-01-30 13:20:00,64.0,17.0,30.07,NNW,337,13.0,17.0,17,0.00,,,0.00,TxWx,2013-01-30 19:20:00,
2013-01-30 13:24:00,64.0,18.0,30.07,NNW,337,17.0,17.0,18,0.00,,,0.00,TxWx,2013-01-30 19:24:00,
2013-01-30 13:25:00,64.0,17.0,30.07,NNW,337,15.0,15.0,17,0.00,,,0.00,TxWx,2013-01-30 19:25:00,
2013-01-30 13:26:00,64.0,18.0,30.07,NW,315,11.0,12.0,18,0.00,,,0.00,TxWx,2013-01-30 19:26:00,
2013-01-30 13:30:00,65.0,18.0,30.07,NNW,337,7.0,7.0,17,0.00,,,0.00,TxWx,2013-01-30 19:30:00,
2013-01-30 13:31:00,65.0,18.0,30.07,NNW,337,12.0,12.0,17,0.00,,,0.00,TxWx,2013-01-30 19:31:00,
2013-01-30 13:35:00,64.0,17.0,30.06,North,0,8.0,8.0,17,0.00,,,0.00,TxWx,2013-01-30 19:35:00,
2013-01-30 13:37:00,64.0,17.0,30.06,NW,315,22.0,22.0,17,0.00,,,0.00,TxWx,2013-01-30 19:37:00,
2013-01-30 13:38:00,64.0,17.0,30.06,NNW,337,23.0,24.0,17,0.00,,,0.00,TxWx,2013-01-30 19:38:00,
2013-01-30 13:40:00,64.0,16.0,30.06,NNW,337,14.0,15.0,16,0.00,,,0.00,TxWx,2013-01-30 19:40:00,
2013-01-30 13:43:00,64.0,17.0,30.06,North,0,23.0,26.0,17,0.00,,,0.00,TxWx,2013-01-30 19:43:00,
2013-01-30 13:47:00,64.0,18.0,30.06,North,0,23.0,23.0,18,0.00,,,0.00,TxWx,2013-01-30 19:47:00,
2013-01-30 13:48:00,64.0,18.0,30.07,NW,315,26.0,26.0,18,0.00,,,0.00,TxWx,2013-01-30 19:48:00,
2013-01-30 13:49:00,63.0,17.0,30.06,NW,315,17.0,23.0,18,0.00,,,0.00,TxWx,2013-01-30 19:49:00,
2013-01-30 13:50:00,64.0,19.0,30.06,NNW,337,20.0,20.0,18,0.00,,,0.00,TxWx,2013-01-30 19:50:00,
2013-01-30 13:52:00,64.0,19.0,30.06,NNW,337,16.0,18.0,18,0.00,,,0.00,TxWx,2013-01-30 19:52:00,
2013-01-30 13:53:00,64.0,19.0,30.06,NNW,337,13.0,13.0,19,0.00,,,0.00,TxWx,2013-01-30 19:53:00,
2013-01-30 13:55:00,64.0,19.0,30.06,North,0,20.0,24.0,18,0.00,,,0.00,TxWx,2013-01-30 19:55:00,
2013-01-30 13:56:00,64.0,19.0,30.06,NNW,337,27.0,27.0,19,0.00,,,0.00,TxWx,2013-01-30 19:56:00,
2013-01-30 13:58:00,64.0,19.0,30.06,NNW,337,13.0,17.0,19,0.00,,,0.00,TxWx,2013-01-30 19:58:00,
2013-01-30 14:00:00,64.0,19.0,30.06,NW,315,10.0,14.0,19,0.00,,,0.00,TxWx,2013-01-30 20:00:00,
2013-01-30 14:02:00,64.0,19.0,30.06,NNE,22,8.0,9.0,19,0.00,,,0.00,TxWx,2013-01-30 20:02:00,
2013-01-30 14:04:00,64.0,20.0,30.06,NNW,337,18.0,18.0,19,0.00,,,0.00,TxWx,2013-01-30 20:04:00,
2013-01-30 14:05:00,64.0,19.0,30.06,NNW,337,17.0,19.0,19,0.00,,,0.00,TxWx,2013-01-30 20:05:00,
2013-01-30 14:07:00,63.0,18.0,30.06,NNW,337,23.0,26.0,18,0.00,,,0.00,TxWx,2013-01-30 20:07:00,
2013-01-30 14:09:00,64.0,20.0,30.06,North,0,10.0,11.0,19,0.00,,,0.00,TxWx,2013-01-30 20:09:00,
2013-01-30 14:10:00,64.0,20.0,30.06,NNW,337,12.0,14.0,20,0.00,,,0.00,TxWx,2013-01-30 20:10:00,
2013-01-30 14:13:00,64.0,20.0,30.06,North,0,14.0,14.0,19,0.00,,,0.00,TxWx,2013-01-30 20:13:00,
2013-01-30 14:14:00,64.0,21.0,30.05,North,0,13.0,13.0,20,0.00,,,0.00,TxWx,2013-01-30 20:14:00,
2013-01-30 14:18:00,64.0,19.0,30.05,NNW,337,19.0,20.0,19,0.00,,,0.00,TxWx,2013-01-30 20:18:00,
2013-01-30 14:20:00,65.0,21.0,30.06,NNW,337,19.0,19.0,19,0.00,,,0.00,TxWx,2013-01-30 20:20:00,
2013-01-30 14:21:00,65.0,21.0,30.06,NNW,337,11.0,13.0,19,0.00,,,0.00,TxWx,2013-01-30 20:21:00,
2013-01-30 14:22:00,65.0,21.0,30.06,NNW,337,8.0,8.0,20,0.00,,,0.00,TxWx,2013-01-30 20:22:00,
2013-01-30 14:25:00,65.0,21.0,30.05,WNW,292,11.0,14.0,20,0.00,,,0.00,TxWx,2013-01-30 20:25:00,
2013-01-30 14:27:00,65.0,21.0,30.06,NNW,337,11.0,14.0,19,0.00,,,0.00,TxWx,2013-01-30 20:27:00,
2013-01-30 14:30:00,64.0,19.0,30.05,NNW,337,17.0,17.0,18,0.00,,,0.00,TxWx,2013-01-30 20:30:00,
2013-01-30 14:31:00,64.0,19.0,30.05,NNE,22,18.0,20.0,19,0.00,,,0.00,TxWx,2013-01-30 20:31:00,
2013-01-30 14:33:00,64.0,19.0,30.04,NNW,337,16.0,16.0,18,0.00,,,0.00,TxWx,2013-01-30 20:33:00,
2013-01-30 14:34:00,65.0,20.0,30.05,NNW,337,19.0,21.0,19,0.00,,,0.00,TxWx,2013-01-30 20:34:00,
2013-01-30 14:37:00,65.0,21.0,30.05,NW,315,10.0,10.0,20,0.00,,,0.00,TxWx,2013-01-30 20:37:00,
2013-01-30 14:40:00,65.0,19.0,30.05,North,0,21.0,22.0,18,0.00,,,0.00,TxWx,2013-01-30 20:40:00,
2013-01-30 14:41:00,65.0,20.0,30.04,NNW,337,10.0,13.0,19,0.00,,,0.00,TxWx,2013-01-30 20:41:00,
2013-01-30 14:42:00,65.0,19.0,30.04,NNE,22,8.0,8.0,18,0.00,,,0.00,TxWx,2013-01-30 20:42:00,
2013-01-30 14:43:00,66.0,21.0,30.05,NNE,22,10.0,10.0,19,0.00,,,0.00,TxWx,2013-01-30 20:43:00,
2013-01-30 14:45:00,66.0,21.0,30.04,NNW,337,8.0,10.0,19,0.00,,,0.00,TxWx,2013-01-30 20:45:00,
2013-01-30 14:47:00,66.0,20.0,30.04,North,0,11.0,14.0,18,0.00,,,0.00,TxWx,2013-01-30 20:47:00,
2013-01-30 14:48:00,66.0,20.0,30.04,NNW,337,19.0,23.0,18,0.00,,,0.00,TxWx,2013-01-30 20:48:00,
2013-01-30 14:52:00,66.0,20.0,30.04,NNW,337,8.0,8.0,18,0.00,,,0.00,TxWx,2013-01-30 20:52:00,
2013-01-30 14:53:00,66.0,20.0,30.04,North,0,12.0,12.0,18,0.00,,,0.00,TxWx,2013-01-30 20:53:00,
2013-01-30 14:54:00,67.0,20.0,30.04,NNW,337,14.0,14.0,17,0.00,,,0.00,TxWx,2013-01-30 20:54:00,
2013-01-30 14:58:00,66.0,17.0,30.03,NW,315,10.0,11.0,16,0.00,,,0.00,TxWx,2013-01-30 20:58:00,
2013-01-30 15:00:00,66.0,17.0,30.04,NW,315,14.0,15.0,16,0.00,,,0.00,TxWx,2013-01-30 21:00:00,
2013-01-30 15:03:00,67.0,18.0,30.04,NNE,22,11.0,12.0,16,0.00,,,0.00,TxWx,2013-01-30 21:03:00,
2013-01-30 15:04:00,67.0,19.0,30.04,NNW,337,17.0,17.0,17,0.00,,,0.00,TxWx,2013-01-30 21:04:00,
2013-01-30 15:05:00,66.0,17.0,30.04,NNW,337,13.0,13.0,16,0.00,,,0.00,TxWx,2013-01-30 21:05:00,
2013-01-30 15:06:00,66.0,17.0,30.04,NNW,337,18.0,19.0,16,0.00,,,0.00,TxWx,2013-01-30 21:06:00,
2013-01-30 15:09:00,67.0,19.0,30.03,NNW,337,12.0,12.0,17,0.00,,,0.00,TxWx,2013-01-30 21:09:00,
2013-01-30 15:10:00,67.0,19.0,30.03,NNE,22,9.0,9.0,17,0.00,,,0.00,TxWx,2013-01-30 21:10:00,
2013-01-30 15:13:00,67.0,19.0,30.04,North,0,19.0,19.0,17,0.00,,,0.00,TxWx,2013-01-30 21:13:00,
2013-01-30 15:15:00,66.0,16.0,30.03,NNE,22,14.0,19.0,15,0.00,,,0.00,TxWx,2013-01-30 21:15:00,
2013-01-30 15:16:00,66.0,16.0,30.03,North,0,21.0,24.0,15,0.00,,,0.00,TxWx,2013-01-30 21:16:00,
2013-01-30 15:18:00,66.0,17.0,30.03,NNW,337,16.0,16.0,16,0.00,,,0.00,TxWx,2013-01-30 21:18:00,
2013-01-30 15:19:00,67.0,17.0,30.03,NNW,337,18.0,18.0,16,0.00,,,0.00,TxWx,2013-01-30 21:19:00,
2013-01-30 15:21:00,67.0,18.0,30.04,NNW,337,30.0,30.0,16,0.00,,,0.00,TxWx,2013-01-30 21:21:00,
2013-01-30 15:23:00,67.0,17.0,30.03,NNW,337,16.0,16.0,15,0.00,,,0.00,TxWx,2013-01-30 21:23:00,
2013-01-30 15:26:00,67.0,16.0,30.04,NNW,337,14.0,14.0,15,0.00,,,0.00,TxWx,2013-01-30 21:26:00,
2013-01-30 15:28:00,67.0,16.0,30.03,NNE,22,14.0,19.0,15,0.00,,,0.00,TxWx,2013-01-30 21:28:00,
2013-01-30 15:29:00,67.0,16.0,30.04,NNW,337,15.0,21.0,15,0.00,,,0.00,TxWx,2013-01-30 21:29:00,
2013-01-30 15:30:00,67.0,16.0,30.04,NNE,22,9.0,10.0,15,0.00,,,0.00,TxWx,2013-01-30 21:30:00,
2013-01-30 15:31:00,67.0,14.0,30.04,NNE,22,16.0,18.0,14,0.00,,,0.00,TxWx,2013-01-30 21:31:00,
2013-01-30 15:34:00,67.0,16.0,30.04,NNW,337,8.0,10.0,15,0.00,,,0.00,TxWx,2013-01-30 21:34:00,
2013-01-30 15:36:00,66.0,12.0,30.04,North,0,17.0,21.0,13,0.00,,,0.00,TxWx,2013-01-30 21:36:00,
2013-01-30 15:38:00,67.0,14.0,30.04,NNW,337,7.0,8.0,14,0.00,,,0.00,TxWx,2013-01-30 21:38:00,
2013-01-30 15:40:00,67.0,15.0,30.04,North,0,14.0,16.0,14,0.00,,,0.00,TxWx,2013-01-30 21:40:00,
2013-01-30 15:42:00,66.0,11.0,30.04,NNW,337,16.0,17.0,12,0.00,,,0.00,TxWx,2013-01-30 21:42:00,
2013-01-30 15:44:00,66.0,11.0,30.04,NNW,337,14.0,14.0,12,0.00,,,0.00,TxWx,2013-01-30 21:44:00,
2013-01-30 15:45:00,67.0,13.0,30.04,NNW,337,18.0,24.0,13,0.00,,,0.00,TxWx,2013-01-30 21:45:00,
2013-01-30 15:47:00,66.0,13.0,30.04,North,0,19.0,20.0,13,0.00,,,0.00,TxWx,2013-01-30 21:47:00,
2013-01-30 15:49:00,66.0,13.0,30.04,NW,315,18.0,19.0,13,0.00,,,0.00,TxWx,2013-01-30 21:49:00,
2013-01-30 15:50:00,66.0,13.0,30.05,North,0,16.0,19.0,13,0.00,,,0.00,TxWx,2013-01-30 21:50:00,
2013-01-30 15:53:00,66.0,13.0,30.04,NNW,337,19.0,19.0,13,0.00,,,0.00,TxWx,2013-01-30 21:53:00,
2013-01-30 15:54:00,66.0,14.0,30.04,NNE,22,22.0,22.0,14,0.00,,,0.00,TxWx,2013-01-30 21:54:00,
2013-01-30 15:55:00,66.0,12.0,30.05,NNE,22,16.0,19.0,13,0.00,,,0.00,TxWx,2013-01-30 21:55:00,
2013-01-30 15:58:00,66.0,12.0,30.05,North,0,22.0,22.0,13,0.00,,,0.00,TxWx,2013-01-30 21:58:00,
2013-01-30 16:00:00,66.0,13.0,30.05,NNE,22,14.0,14.0,13,0.00,,,0.00,TxWx,2013-01-30 22:00:00,
2013-01-30 16:01:00,66.0,12.0,30.05,NNW,337,16.0,16.0,13,0.00,,,0.00,TxWx,2013-01-30 22:01:00,
2013-01-30 16:03:00,66.0,13.0,30.04,NNW,337,15.0,16.0,13,0.00,,,0.00,TxWx,2013-01-30 22:03:00,
2013-01-30 16:05:00,66.0,14.0,30.05,NNW,337,8.0,10.0,14,0.00,,,0.00,TxWx,2013-01-30 22:05:00,
2013-01-30 16:06:00,66.0,14.0,30.05,NW,315,10.0,10.0,14,0.00,,,0.00,TxWx,2013-01-30 22:06:00,
2013-01-30 16:07:00,66.0,13.0,30.05,NNW,337,19.0,21.0,13,0.00,,,0.00,TxWx,2013-01-30 22:07:00,
2013-01-30 16:11:00,66.0,14.0,30.05,NNW,337,5.0,6.0,14,0.00,,,0.00,TxWx,2013-01-30 22:11:00,
2013-01-30 16:12:00,66.0,14.0,30.05,North,0,18.0,18.0,14,0.00,,,0.00,TxWx,2013-01-30 22:12:00,
2013-01-30 16:13:00,66.0,14.0,30.05,NNE,22,18.0,18.0,14,0.00,,,0.00,TxWx,2013-01-30 22:13:00,
2013-01-30 16:17:00,66.0,16.0,30.05,North,0,6.0,10.0,15,0.00,,,0.00,TxWx,2013-01-30 22:17:00,
2013-01-30 16:18:00,66.0,16.0,30.05,NNW,337,17.0,17.0,15,0.00,,,0.00,TxWx,2013-01-30 22:18:00,
2013-01-30 16:19:00,66.0,17.0,30.05,NNW,337,8.0,12.0,16,0.00,,,0.00,TxWx,2013-01-30 22:19:00,
2013-01-30 16:23:00,66.0,17.0,30.05,NNW,337,16.0,18.0,16,0.00,,,0.00,TxWx,2013-01-30 22:23:00,
2013-01-30 16:24:00,65.0,16.0,30.06,North,0,20.0,20.0,16,0.00,,,0.00,TxWx,2013-01-30 22:24:00,
2013-01-30 16:25:00,65.0,15.0,30.06,North,0,11.0,11.0,15,0.00,,,0.00,TxWx,2013-01-30 22:25:00,
2013-01-30 16:26:00,65.0,14.0,30.05,North,0,18.0,23.0,15,0.00,,,0.00,TxWx,2013-01-30 22:26:00,
2013-01-30 16:30:00,65.0,16.0,30.06,NNW,337,12.0,12.0,16,0.00,,,0.00,TxWx,2013-01-30 22:30:00,
2013-01-30 16:31:00,65.0,16.0,30.06,NNE,22,10.0,10.0,16,0.00,,,0.00,TxWx,2013-01-30 22:31:00,
2013-01-30 16:32:00,65.0,16.0,30.06,North,0,20.0,21.0,16,0.00,,,0.00,TxWx,2013-01-30 22:32:00,
2013-01-30 16:35:00,65.0,15.0,30.06,NNE,22,15.0,19.0,15,0.00,,,0.00,TxWx,2013-01-30 22:35:00,
2013-01-30 16:36:00,65.0,15.0,30.06,NNW,337,18.0,20.0,15,0.00,,,0.00,TxWx,2013-01-30 22:36:00,
2013-01-30 16:37:00,65.0,15.0,30.06,NNE,22,10.0,12.0,15,0.00,,,0.00,TxWx,2013-01-30 22:37:00,
2013-01-30 16:39:00,65.0,15.0,30.06,NNW,337,13.0,14.0,15,0.00,,,0.00,TxWx,2013-01-30 22:39:00,
2013-01-30 16:41:00,65.0,16.0,30.06,NNE,22,9.0,11.0,16,0.00,,,0.00,TxWx,2013-01-30 22:41:00,
2013-01-30 16:44:00,65.0,17.0,30.07,NNW,337,9.0,9.0,17,0.00,,,0.00,TxWx,2013-01-30 22:44:00,
2013-01-30 16:45:00,65.0,17.0,30.07,NNE,22,6.0,8.0,17,0.00,,,0.00,TxWx,2013-01-30 22:45:00,
2013-01-30 16:46:00,65.0,17.0,30.07,NNW,337,17.0,17.0,17,0.00,,,0.00,TxWx,2013-01-30 22:46:00,
2013-01-30 16:48:00,65.0,18.0,30.07,NNW,337,10.0,10.0,17,0.00,,,0.00,TxWx,2013-01-30 22:48:00,
2013-01-30 16:49:00,65.0,17.0,30.07,NW,315,12.0,15.0,16,0.00,,,0.00,TxWx,2013-01-30 22:49:00,
2013-01-30 16:50:00,65.0,17.0,30.07,North,0,11.0,11.0,16,0.00,,,0.00,TxWx,2013-01-30 22:50:00,
2013-01-30 16:53:00,65.0,17.0,30.07,NNW,337,10.0,12.0,16,0.00,,,0.00,TxWx,2013-01-30 22:53:00,
2013-01-30 16:54:00,65.0,17.0,30.07,NNW,337,11.0,11.0,17,0.00,,,0.00,TxWx,2013-01-30 22:54:00,
2013-01-30 16:55:00,64.0,15.0,30.07,NW,315,14.0,14.0,16,0.00,,,0.00,TxWx,2013-01-30 22:55:00,
2013-01-30 16:57:00,64.0,16.0,30.07,NW,315,12.0,12.0,16,0.00,,,0.00,TxWx,2013-01-30 22:57:00,
2013-01-30 17:00:00,64.0,15.0,30.07,North,0,20.0,21.0,16,0.00,,,0.00,TxWx,2013-01-30 23:00:00,
2013-01-30 17:01:00,64.0,15.0,30.07,NNE,22,14.0,15.0,16,0.00,,,0.00,TxWx,2013-01-30 23:01:00,
2013-01-30 17:02:00,64.0,14.0,30.07,North,0,13.0,13.0,15,0.00,,,0.00,TxWx,2013-01-30 23:02:00,
2013-01-30 17:03:00,64.0,14.0,30.07,NNW,337,13.0,14.0,15,0.00,,,0.00,TxWx,2013-01-30 23:03:00,
2013-01-30 17:06:00,64.0,17.0,30.08,NNW,337,9.0,12.0,17,0.00,,,0.00,TxWx,2013-01-30 23:06:00,
2013-01-30 17:08:00,64.0,17.0,30.08,NNW,337,14.0,14.0,17,0.00,,,0.00,TxWx,2013-01-30 23:08:00,
2013-01-30 17:12:00,64.0,17.0,30.08,NNW,337,6.0,7.0,17,0.00,,,0.00,TxWx,2013-01-30 23:12:00,
2013-01-30 17:14:00,64.0,17.0,30.08,NW,315,6.0,6.0,17,0.00,,,0.00,TxWx,2013-01-30 23:14:00,
2013-01-30 17:17:00,64.0,18.0,30.08,NNW,337,11.0,12.0,18,0.00,,,0.00,TxWx,2013-01-30 23:17:00,
2013-01-30 17:19:00,64.0,17.0,30.08,North,0,12.0,16.0,17,0.00,,,0.00,TxWx,2013-01-30 23:19:00,
2013-01-30 17:21:00,64.0,17.0,30.08,NNW,337,14.0,14.0,17,0.00,,,0.00,TxWx,2013-01-30 23:21:00,
2013-01-30 17:24:00,63.0,17.0,30.08,NNW,337,19.0,19.0,18,0.00,,,0.00,TxWx,2013-01-30 23:24:00,
2013-01-30 17:27:00,63.0,18.0,30.08,NNW,337,14.0,14.0,18,0.00,,,0.00,TxWx,2013-01-30 23:27:00,
2013-01-30 17:30:00,63.0,19.0,30.08,NE,45,3.0,4.0,19,0.00,,,0.00,TxWx,2013-01-30 23:30:00,
2013-01-30 17:32:00,63.0,17.0,30.08,NNE,22,10.0,11.0,18,0.00,,,0.00,TxWx,2013-01-30 23:32:00,
2013-01-30 17:36:00,63.0,18.0,30.09,NW,315,4.0,4.0,19,0.00,,,0.00,TxWx,2013-01-30 23:36:00,
2013-01-30 17:38:00,63.0,18.0,30.09,ENE,67,11.0,12.0,19,0.00,,,0.00,TxWx,2013-01-30 23:38:00,
2013-01-30 17:39:00,63.0,18.0,30.09,NNE,22,15.0,19.0,19,0.00,,,0.00,TxWx,2013-01-30 23:39:00,
2013-01-30 17:41:00,63.0,18.0,30.09,NNW,337,13.0,15.0,18,0.00,,,0.00,TxWx,2013-01-30 23:41:00,
2013-01-30 17:43:00,63.0,19.0,30.09,NNW,337,10.0,10.0,19,0.00,,,0.00,TxWx,2013-01-30 23:43:00,
2013-01-30 17:44:00,63.0,19.0,30.09,NNW,337,7.0,8.0,19,0.00,,,0.00,TxWx,2013-01-30 23:44:00,
2013-01-30 17:47:00,62.0,18.0,30.09,North,0,9.0,9.0,19,0.00,,,0.00,TxWx,2013-01-30 23:47:00,
2013-01-30 17:49:00,62.0,18.0,30.09,NNE,22,11.0,11.0,19,0.00,,,0.00,TxWx,2013-01-30 23:49:00,
2013-01-30 17:50:00,62.0,19.0,30.09,NNW,337,8.0,8.0,20,0.00,,,0.00,TxWx,2013-01-30 23:50:00,
2013-01-30 17:52:00,62.0,19.0,30.09,NNE,22,13.0,13.0,20,0.00,,,0.00,TxWx,2013-01-30 23:52:00,
2013-01-30 17:54:00,62.0,19.0,30.10,NNW,337,18.0,18.0,20,0.00,,,0.00,TxWx,2013-01-30 23:54:00,
2013-01-30 17:56:00,62.0,19.0,30.10,NNW,337,13.0,13.0,20,0.00,,,0.00,TxWx,2013-01-30 23:56:00,
2013-01-30 17:57:00,62.0,19.0,30.10,ENE,67,8.0,8.0,20,0.00,,,0.00,TxWx,2013-01-30 23:57:00,
2013-01-30 17:59:00,62.0,19.0,30.09,ENE,67,10.0,10.0,20,0.00,,,0.00,TxWx,2013-01-30 23:59:00,
2013-01-30 18:01:00,62.0,19.0,30.09,North,0,10.0,12.0,20,0.00,,,0.00,TxWx,2013-01-31 00:01:00,
2013-01-30 18:02:00,62.0,19.0,30.10,North,0,10.0,11.0,20,0.00,,,0.00,TxWx,2013-01-31 00:02:00,
2013-01-30 18:05:00,62.0,18.0,30.10,NNW,337,11.0,11.0,19,0.00,,,0.00,TxWx,2013-01-31 00:05:00,
2013-01-30 18:07:00,62.0,18.0,30.10,NNW,337,7.0,8.0,19,0.00,,,0.00,TxWx,2013-01-31 00:07:00,
2013-01-30 18:08:00,62.0,18.0,30.10,NNW,337,5.0,6.0,19,0.00,,,0.00,TxWx,2013-01-31 00:08:00,
2013-01-30 18:10:00,62.0,18.0,30.10,NW,315,11.0,11.0,19,0.00,,,0.00,TxWx,2013-01-31 00:10:00,
2013-01-30 18:12:00,62.0,18.0,30.11,North,0,13.0,16.0,19,0.00,,,0.00,TxWx,2013-01-31 00:12:00,
2013-01-30 18:13:00,62.0,18.0,30.11,North,0,5.0,5.0,19,0.00,,,0.00,TxWx,2013-01-31 00:13:00,
2013-01-30 18:15:00,61.0,18.0,30.11,North,0,6.0,8.0,20,0.00,,,0.00,TxWx,2013-01-31 00:15:00,
2013-01-30 18:16:00,61.0,18.0,30.11,North,0,10.0,12.0,20,0.00,,,0.00,TxWx,2013-01-31 00:16:00,
2013-01-30 18:18:00,61.0,19.0,30.11,North,0,9.0,9.0,20,0.00,,,0.00,TxWx,2013-01-31 00:18:00,
2013-01-30 18:21:00,61.0,19.0,30.11,NNE,22,8.0,8.0,20,0.00,,,0.00,TxWx,2013-01-31 00:21:00,
2013-01-30 18:22:00,61.0,19.0,30.11,NNW,337,6.0,6.0,21,0.00,,,0.00,TxWx,2013-01-31 00:22:00,
2013-01-30 18:25:00,61.0,20.0,30.11,North,0,6.0,8.0,21,0.00,,,0.00,TxWx,2013-01-31 00:25:00,
2013-01-30 18:26:00,61.0,20.0,30.11,North,0,7.0,8.0,21,0.00,,,0.00,TxWx,2013-01-31 00:26:00,
2013-01-30 18:27:00,61.0,20.0,30.11,North,0,5.0,5.0,22,0.00,,,0.00,TxWx,2013-01-31 00:27:00,
2013-01-30 18:31:00,61.0,20.0,30.11,NNW,337,5.0,5.0,21,0.00,,,0.00,TxWx,2013-01-31 00:31:00,
2013-01-30 18:33:00,61.0,20.0,30.12,WNW,292,5.0,6.0,22,0.00,,,0.00,TxWx,2013-01-31 00:33:00,
2013-01-30 18:36:00,61.0,20.0,30.12,NNW,337,6.0,6.0,21,0.00,,,0.00,TxWx,2013-01-31 00:36:00,
2013-01-30 18:37:00,61.0,20.0,30.12,NNW,337,8.0,8.0,21,0.00,,,0.00,TxWx,2013-01-31 00:37:00,
2013-01-30 18:38:00,61.0,19.0,30.12,NNW,337,13.0,14.0,20,0.00,,,0.00,TxWx,2013-01-31 00:38:00,
2013-01-30 18:39:00,61.0,20.0,30.12,NNE,22,3.0,3.0,21,0.00,,,0.00,TxWx,2013-01-31 00:39:00,
2013-01-30 18:43:00,61.0,19.0,30.12,NNE,22,5.0,5.0,21,0.00,,,0.00,TxWx,2013-01-31 00:43:00,
2013-01-30 18:45:00,61.0,19.0,30.13,NNE,22,6.0,6.0,21,0.00,,,0.00,TxWx,2013-01-31 00:45:00,
2013-01-30 18:46:00,61.0,20.0,30.13,NNE,22,6.0,6.0,21,0.00,,,0.00,TxWx,2013-01-31 00:46:00,
2013-01-30 18:49:00,61.0,19.0,30.13,NNE,22,6.0,6.0,21,0.00,,,0.00,TxWx,2013-01-31 00:49:00,
2013-01-30 18:50:00,61.0,19.0,30.13,NNW,337,6.0,7.0,21,0.00,,,0.00,TxWx,2013-01-31 00:50:00,
2013-01-30 18:52:00,61.0,19.0,30.13,North,0,11.0,11.0,21,0.00,,,0.00,TxWx,2013-01-31 00:52:00,
2013-01-30 18:54:00,61.0,20.0,30.13,North,0,5.0,5.0,21,0.00,,,0.00,TxWx,2013-01-31 00:54:00,
2013-01-30 18:55:00,61.0,20.0,30.13,NNW,337,5.0,6.0,21,0.00,,,0.00,TxWx,2013-01-31 00:55:00,
2013-01-30 18:56:00,61.0,20.0,30.13,North,0,6.0,6.0,21,0.00,,,0.00,TxWx,2013-01-31 00:56:00,
2013-01-30 18:59:00,60.0,19.0,30.14,North,0,5.0,5.0,22,0.00,,,0.00,TxWx,2013-01-31 00:59:00,
2013-01-30 19:01:00,60.0,19.0,30.14,NNW,337,3.0,3.0,22,0.00,,,0.00,TxWx,2013-01-31 01:01:00,
2013-01-30 19:02:00,60.0,19.0,30.14,NNE,22,6.0,6.0,22,0.00,,,0.00,TxWx,2013-01-31 01:02:00,
2013-01-30 19:05:00,60.0,21.0,30.14,NNW,337,5.0,6.0,23,0.00,,,0.00,TxWx,2013-01-31 01:05:00,
2013-01-30 19:06:00,60.0,20.0,30.14,North,0,5.0,5.0,22,0.00,,,0.00,TxWx,2013-01-31 01:06:00,
2013-01-30 19:08:00,60.0,20.0,30.14,NNE,22,5.0,5.0,22,0.00,,,0.00,TxWx,2013-01-31 01:08:00,
2013-01-30 19:09:00,60.0,20.0,30.14,NNW,337,5.0,5.0,22,0.00,,,0.00,TxWx,2013-01-31 01:09:00,
2013-01-30 19:11:00,60.0,20.0,30.14,North,0,8.0,9.0,22,0.00,,,0.00,TxWx,2013-01-31 01:11:00,
2013-01-30 19:12:00,60.0,20.0,30.14,NNW,337,6.0,6.0,22,0.00,,,0.00,TxWx,2013-01-31 01:12:00,
2013-01-30 19:13:00,60.0,21.0,30.14,North,0,4.0,5.0,23,0.00,,,0.00,TxWx,2013-01-31 01:13:00,
2013-01-30 19:15:00,60.0,20.0,30.14,North,0,6.0,8.0,22,0.00,,,0.00,TxWx,2013-01-31 01:15:00,
2013-01-30 19:17:00,60.0,19.0,30.14,NNE,22,8.0,8.0,22,0.00,,,0.00,TxWx,2013-01-31 01:17:00,
2013-01-30 19:19:00,60.0,19.0,30.14,NNE,22,8.0,8.0,22,0.00,,,0.00,TxWx,2013-01-31 01:19:00,
2013-01-30 19:20:00,60.0,19.0,30.14,North,0,5.0,6.0,22,0.00,,,0.00,TxWx,2013-01-31 01:20:00,
2013-01-30 19:22:00,60.0,21.0,30.14,NNE,22,10.0,10.0,23,0.00,,,0.00,TxWx,2013-01-31 01:22:00,
2013-01-30 19:23:00,60.0,21.0,30.14,North,0,6.0,8.0,23,0.00,,,0.00,TxWx,2013-01-31 01:23:00,
2013-01-30 19:24:00,60.0,21.0,30.14,WNW,292,5.0,5.0,23,0.00,,,0.00,TxWx,2013-01-31 01:24:00,
2013-01-30 19:27:00,60.0,22.0,30.15,North,0,6.0,6.0,24,0.00,,,0.00,TxWx,2013-01-31 01:27:00,
2013-01-30 19:28:00,60.0,22.0,30.15,NNW,337,7.0,7.0,24,0.00,,,0.00,TxWx,2013-01-31 01:28:00,
2013-01-30 19:30:00,60.0,22.0,30.15,North,0,9.0,11.0,24,0.00,,,0.00,TxWx,2013-01-31 01:30:00,
2013-01-30 19:33:00,60.0,23.0,30.15,NNE,22,7.0,7.0,25,0.00,,,0.00,TxWx,2013-01-31 01:33:00,
2013-01-30 19:34:00,60.0,23.0,30.14,North,0,3.0,3.0,25,0.00,,,0.00,TxWx,2013-01-31 01:34:00,
2013-01-30 19:36:00,60.0,23.0,30.15,North,0,5.0,5.0,25,0.00,,,0.00,TxWx,2013-01-31 01:36:00,
2013-01-30 19:37:00,60.0,23.0,30.15,North,0,8.0,8.0,25,0.00,,,0.00,TxWx,2013-01-31 01:37:00,
2013-01-30 19:39:00,60.0,23.0,30.15,North,0,4.0,4.0,25,0.00,,,0.00,TxWx,2013-01-31 01:39:00,
2013-01-30 19:41:00,60.0,22.0,30.16,NW,315,2.0,3.0,24,0.00,,,0.00,TxWx,2013-01-31 01:41:00,
2013-01-30 19:44:00,60.0,23.0,30.16,North,0,5.0,6.0,25,0.00,,,0.00,TxWx,2013-01-31 01:44:00,
2013-01-30 19:45:00,60.0,23.0,30.16,North,0,8.0,11.0,25,0.00,,,0.00,TxWx,2013-01-31 01:45:00,
2013-01-30 19:46:00,60.0,23.0,30.16,NNE,22,10.0,10.0,25,0.00,,,0.00,TxWx,2013-01-31 01:46:00,
2013-01-30 19:47:00,60.0,23.0,30.16,NNW,337,7.0,7.0,25,0.00,,,0.00,TxWx,2013-01-31 01:47:00,
2013-01-30 19:50:00,60.0,23.0,30.16,NNW,337,3.0,3.0,25,0.00,,,0.00,TxWx,2013-01-31 01:50:00,
2013-01-30 19:51:00,60.0,22.0,30.16,NNW,337,5.0,6.0,24,0.00,,,0.00,TxWx,2013-01-31 01:51:00,
2013-01-30 19:53:00,60.0,23.0,30.16,NNW,337,5.0,5.0,25,0.00,,,0.00,TxWx,2013-01-31 01:53:00,
2013-01-30 19:55:00,60.0,22.0,30.16,NNE,22,7.0,7.0,24,0.00,,,0.00,TxWx,2013-01-31 01:55:00,
2013-01-30 19:56:00,60.0,22.0,30.16,North,0,4.0,4.0,24,0.00,,,0.00,TxWx,2013-01-31 01:56:00,
2013-01-30 19:59:00,60.0,22.0,30.16,NNW,337,6.0,6.0,24,0.00,,,0.00,TxWx,2013-01-31 01:59:00,
2013-01-30 20:00:00,60.0,22.0,30.16,North,0,6.0,6.0,24,0.00,,,0.00,TxWx,2013-01-31 02:00:00,
2013-01-30 20:01:00,60.0,22.0,30.17,NNE,22,5.0,5.0,24,0.00,,,0.00,TxWx,2013-01-31 02:01:00,
2013-01-30 20:05:00,60.0,22.0,30.16,NNW,337,3.0,5.0,24,0.00,,,0.00,TxWx,2013-01-31 02:05:00,
2013-01-30 20:06:00,60.0,22.0,30.17,NNE,22,6.0,6.0,24,0.00,,,0.00,TxWx,2013-01-31 02:06:00,
2013-01-30 20:07:00,60.0,22.0,30.17,NNW,337,11.0,11.0,24,0.00,,,0.00,TxWx,2013-01-31 02:07:00,
2013-01-30 20:12:00,60.0,24.0,30.17,North,0,4.0,5.0,26,0.00,,,0.00,TxWx,2013-01-31 02:12:00,
2013-01-30 20:13:00,60.0,24.0,30.17,NNE,22,3.0,3.0,26,0.00,,,0.00,TxWx,2013-01-31 02:13:00,
2013-01-30 20:15:00,60.0,23.0,30.17,NNE,22,7.0,7.0,26,0.00,,,0.00,TxWx,2013-01-31 02:15:00,
2013-01-30 20:17:00,59.0,23.0,30.17,North,0,6.0,6.0,26,0.00,,,0.00,TxWx,2013-01-31 02:17:00,
2013-01-30 20:19:00,60.0,23.0,30.17,NNE,22,7.0,7.0,25,0.00,,,0.00,TxWx,2013-01-31 02:19:00,
2013-01-30 20:20:00,60.0,23.0,30.17,NNE,22,8.0,8.0,25,0.00,,,0.00,TxWx,2013-01-31 02:20:00,
2013-01-30 20:22:00,60.0,23.0,30.17,NNW,337,4.0,4.0,26,0.00,,,0.00,TxWx,2013-01-31 02:22:00,
2013-01-30 20:25:00,60.0,23.0,30.17,NNW,337,3.0,4.0,26,0.00,,,0.00,TxWx,2013-01-31 02:25:00,
2013-01-30 20:28:00,59.0,23.0,30.17,NNW,337,5.0,6.0,26,0.00,,,0.00,TxWx,2013-01-31 02:28:00,
2013-01-30 20:30:00,60.0,23.0,30.17,North,0,11.0,11.0,26,0.00,,,0.00,TxWx,2013-01-31 02:30:00,
2013-01-30 20:32:00,60.0,25.0,30.17,North,0,4.0,5.0,28,0.00,,,0.00,TxWx,2013-01-31 02:32:00,
2013-01-30 20:34:00,60.0,24.0,30.17,NNE,22,8.0,8.0,26,0.00,,,0.00,TxWx,2013-01-31 02:34:00,
2013-01-30 20:36:00,60.0,23.0,30.17,NNE,22,6.0,7.0,26,0.00,,,0.00,TxWx,2013-01-31 02:36:00,
2013-01-30 20:37:00,60.0,23.0,30.18,NNE,22,8.0,11.0,26,0.00,,,0.00,TxWx,2013-01-31 02:37:00,
2013-01-30 20:39:00,60.0,23.0,30.17,NNE,22,8.0,8.0,25,0.00,,,0.00,TxWx,2013-01-31 02:39:00,
2013-01-30 20:42:00,60.0,24.0,30.17,NNE,22,3.0,3.0,26,0.00,,,0.00,TxWx,2013-01-31 02:42:00,
2013-01-30 20:44:00,60.0,27.0,30.17,NNE,22,6.0,6.0,30,0.00,,,0.00,TxWx,2013-01-31 02:44:00,
2013-01-30 20:45:00,60.0,27.0,30.17,NNE,22,10.0,10.0,30,0.00,,,0.00,TxWx,2013-01-31 02:45:00,
2013-01-30 20:47:00,60.0,26.0,30.17,NNE,22,7.0,7.0,29,0.00,,,0.00,TxWx,2013-01-31 02:47:00,
2013-01-30 20:48:00,60.0,27.0,30.17,NNE,22,8.0,8.0,30,0.00,,,0.00,TxWx,2013-01-31 02:48:00,
2013-01-30 20:49:00,60.0,26.0,30.17,NNE,22,5.0,6.0,28,0.00,,,0.00,TxWx,2013-01-31 02:49:00,
2013-01-30 20:50:00,60.0,26.0,30.17,NNE,22,6.0,8.0,29,0.00,,,0.00,TxWx,2013-01-31 02:50:00,
2013-01-30 20:54:00,60.0,27.0,30.17,NNE,22,9.0,9.0,30,0.00,,,0.00,TxWx,2013-01-31 02:54:00,
2013-01-30 20:55:00,60.0,27.0,30.17,East,90,6.0,6.0,30,0.00,,,0.00,TxWx,2013-01-31 02:55:00,
2013-01-30 20:56:00,60.0,25.0,30.17,NNE,22,13.0,13.0,27,0.00,,,0.00,TxWx,2013-01-31 02:56:00,
2013-01-30 20:59:00,60.0,27.0,30.17,NE,45,9.0,12.0,29,0.00,,,0.00,TxWx,2013-01-31 02:59:00,
2013-01-30 21:02:00,60.0,27.0,30.18,NNE,22,10.0,10.0,30,0.00,,,0.00,TxWx,2013-01-31 03:02:00,
2013-01-30 21:03:00,60.0,25.0,30.18,NE,45,14.0,14.0,28,0.00,,,0.00,TxWx,2013-01-31 03:03:00,
2013-01-30 21:06:00,60.0,25.0,30.18,NNE,22,8.0,10.0,28,0.00,,,0.00,TxWx,2013-01-31 03:06:00,
2013-01-30 21:07:00,60.0,25.0,30.17,NNE,22,10.0,10.0,28,0.00,,,0.00,TxWx,2013-01-31 03:07:00,
2013-01-30 21:08:00,60.0,25.0,30.18,NE,45,9.0,9.0,28,0.00,,,0.00,TxWx,2013-01-31 03:08:00,
2013-01-30 21:13:00,60.0,27.0,30.18,North,0,6.0,6.0,30,0.00,,,0.00,TxWx,2013-01-31 03:13:00,
2013-01-30 21:14:00,60.0,27.0,30.18,NE,45,7.0,8.0,30,0.00,,,0.00,TxWx,2013-01-31 03:14:00,
2013-01-30 21:18:00,60.0,26.0,30.18,NNE,22,5.0,5.0,28,0.00,,,0.00,TxWx,2013-01-31 03:18:00,
2013-01-30 21:19:00,60.0,27.0,30.18,NNW,337,8.0,10.0,30,0.00,,,0.00,TxWx,2013-01-31 03:19:00,
2013-01-30 21:20:00,60.0,27.0,30.18,North,0,8.0,8.0,30,0.00,,,0.00,TxWx,2013-01-31 03:20:00,
2013-01-30 21:23:00,60.0,23.0,30.18,NE,45,10.0,11.0,26,0.00,,,0.00,TxWx,2013-01-31 03:23:00,
2013-01-30 21:25:00,60.0,27.0,30.18,NE,45,13.0,13.0,29,0.00,,,0.00,TxWx,2013-01-31 03:25:00,
2013-01-30 21:26:00,60.0,25.0,30.18,East,90,6.0,8.0,28,0.00,,,0.00,TxWx,2013-01-31 03:26:00,
2013-01-30 21:27:00,60.0,26.0,30.18,NNE,22,10.0,11.0,28,0.00,,,0.00,TxWx,2013-01-31 03:27:00,
2013-01-30 21:28:00,60.0,27.0,30.19,North,0,9.0,11.0,30,0.00,,,0.00,TxWx,2013-01-31 03:28:00,
2013-01-30 21:31:00,60.0,27.0,30.18,NNE,22,8.0,10.0,29,0.00,,,0.00,TxWx,2013-01-31 03:31:00,
2013-01-30 21:32:00,60.0,27.0,30.18,NE,45,8.0,8.0,30,0.00,,,0.00,TxWx,2013-01-31 03:32:00,
2013-01-30 21:34:00,60.0,26.0,30.19,NNW,337,10.0,10.0,29,0.00,,,0.00,TxWx,2013-01-31 03:34:00,
2013-01-30 21:37:00,60.0,27.0,30.19,NNE,22,9.0,11.0,29,0.00,,,0.00,TxWx,2013-01-31 03:37:00,
2013-01-30 21:40:00,60.0,27.0,30.19,ENE,67,11.0,12.0,29,0.00,,,0.00,TxWx,2013-01-31 03:40:00,
2013-01-30 21:41:00,60.0,25.0,30.19,NNE,22,13.0,13.0,28,0.00,,,0.00,TxWx,2013-01-31 03:41:00,
2013-01-30 21:42:00,60.0,27.0,30.19,NE,45,8.0,9.0,30,0.00,,,0.00,TxWx,2013-01-31 03:42:00,
2013-01-30 21:46:00,60.0,25.0,30.19,NNE,22,8.0,8.0,27,0.00,,,0.00,TxWx,2013-01-31 03:46:00,
2013-01-30 21:47:00,60.0,26.0,30.19,ENE,67,12.0,14.0,28,0.00,,,0.00,TxWx,2013-01-31 03:47:00,
2013-01-30 21:48:00,60.0,26.0,30.19,NE,45,8.0,11.0,28,0.00,,,0.00,TxWx,2013-01-31 03:48:00,
2013-01-30 21:51:00,59.0,24.0,30.19,NE,45,13.0,13.0,27,0.00,,,0.00,TxWx,2013-01-31 03:51:00,
2013-01-30 21:53:00,59.0,25.0,30.19,ENE,67,7.0,8.0,28,0.00,,,0.00,TxWx,2013-01-31 03:53:00,
2013-01-30 21:54:00,60.0,28.0,30.19,NNE,22,9.0,11.0,31,0.00,,,0.00,TxWx,2013-01-31 03:54:00,
2013-01-30 21:56:00,59.0,29.0,30.19,NNE,22,11.0,11.0,33,0.00,,,0.00,TxWx,2013-01-31 03:56:00,
2013-01-30 21:58:00,59.0,24.0,30.19,NE,45,12.0,15.0,27,0.00,,,0.00,TxWx,2013-01-31 03:58:00,
2013-01-30 21:59:00,59.0,25.0,30.19,NNE,22,8.0,11.0,28,0.00,,,0.00,TxWx,2013-01-31 03:59:00,
2013-01-30 22:00:00,59.0,29.0,30.22,NE,45,13.0,13.0,33,0.00,,,0.00,TxWx,2013-01-31 04:00:00,
2013-01-30 22:01:00,59.0,29.0,30.21,NE,45,13.0,13.0,34,0.00,,,0.00,TxWx,2013-01-31 04:01:00,
2013-01-30 22:02:00,59.0,30.0,30.21,ENE,67,13.0,14.0,35,0.00,,,0.00,TxWx,2013-01-31 04:02:00,
2013-01-30 22:03:00,59.0,27.0,30.20,NNE,22,11.0,12.0,30,0.00,,,0.00,TxWx,2013-01-31 04:03:00,
2013-01-30 22:04:00,59.0,24.0,30.20,NE,45,13.0,13.0,27,0.00,,,0.00,TxWx,2013-01-31 04:04:00,
2013-01-30 22:05:00,59.0,32.0,30.21,NE,45,14.0,14.0,37,0.00,,,0.00,TxWx,2013-01-31 04:05:00,
2013-01-30 22:06:00,59.0,30.0,30.20,NNE,22,11.0,11.0,34,0.00,,,0.00,TxWx,2013-01-31 04:06:00,
2013-01-30 22:07:00,59.0,30.0,30.21,ENE,67,16.0,16.0,34,0.00,,,0.00,TxWx,2013-01-31 04:07:00,
2013-01-30 22:08:00,59.0,31.0,30.21,ENE,67,13.0,13.0,36,0.00,,,0.00,TxWx,2013-01-31 04:08:00,
2013-01-30 22:09:00,59.0,25.0,30.21,NE,45,17.0,18.0,28,0.00,,,0.00,TxWx,2013-01-31 04:09:00,
2013-01-30 22:10:00,59.0,23.0,30.21,NE,45,9.0,10.0,26,0.00,,,0.00,TxWx,2013-01-31 04:10:00,
2013-01-30 22:11:00,59.0,26.0,30.21,NE,45,13.0,13.0,30,0.00,,,0.00,TxWx,2013-01-31 04:11:00,
2013-01-30 22:12:00,58.0,30.0,30.22,NE,45,7.0,9.0,37,0.00,,,0.00,TxWx,2013-01-31 04:12:00,
2013-01-30 22:13:00,58.0,30.0,30.22,NE,45,6.0,6.0,36,0.00,,,0.00,TxWx,2013-01-31 04:13:00,
2013-01-30 22:14:00,59.0,29.0,30.21,NNE,22,10.0,10.0,34,0.00,,,0.00,TxWx,2013-01-31 04:14:00,
2013-01-30 22:15:00,59.0,26.0,30.21,NE,45,14.0,15.0,30,0.00,,,0.00,TxWx,2013-01-31 04:15:00,
2013-01-30 22:16:00,59.0,27.0,30.21,NE,45,10.0,10.0,31,0.00,,,0.00,TxWx,2013-01-31 04:16:00,
2013-01-30 22:17:00,58.0,31.0,30.21,ENE,67,8.0,8.0,37,0.00,,,0.00,TxWx,2013-01-31 04:17:00,
2013-01-30 22:18:00,58.0,33.0,30.21,East,90,6.0,6.0,39,0.00,,,0.00,TxWx,2013-01-31 04:18:00,
2013-01-30 22:19:00,58.0,33.0,30.21,ENE,67,13.0,13.0,39,0.00,,,0.00,TxWx,2013-01-31 04:19:00,
2013-01-30 22:20:00,59.0,27.0,30.20,NE,45,10.0,11.0,31,0.00,,,0.00,TxWx,2013-01-31 04:20:00,
2013-01-30 22:21:00,59.0,27.0,30.20,NE,45,13.0,13.0,31,0.00,,,0.00,TxWx,2013-01-31 04:21:00,
2013-01-30 22:22:00,58.0,33.0,30.21,NE,45,11.0,11.0,39,0.00,,,0.00,TxWx,2013-01-31 04:22:00,
2013-01-30 22:23:00,58.0,33.0,30.21,ENE,67,10.0,10.0,39,0.00,,,0.00,TxWx,2013-01-31 04:23:00,
2013-01-30 22:24:00,58.0,33.0,30.21,NE,45,4.0,5.0,39,0.00,,,0.00,TxWx,2013-01-31 04:24:00,
2013-01-30 22:25:00,58.0,34.0,30.21,ENE,67,8.0,9.0,40,0.00,,,0.00,TxWx,2013-01-31 04:25:00,
2013-01-30 22:26:00,59.0,29.0,30.21,NE,45,14.0,15.0,33,0.00,,,0.00,TxWx,2013-01-31 04:26:00,
2013-01-30 22:27:00,59.0,27.0,30.21,NNE,22,10.0,13.0,31,0.00,,,0.00,TxWx,2013-01-31 04:27:00,
2013-01-30 22:28:00,58.0,32.0,30.21,NE,45,12.0,12.0,38,0.00,,,0.00,TxWx,2013-01-31 04:28:00,
2013-01-30 22:29:00,59.0,26.0,30.21,NNE,22,9.0,11.0,29,0.00,,,0.00,TxWx,2013-01-31 04:29:00,
2013-01-30 22:30:00,58.0,33.0,30.21,ENE,67,6.0,6.0,40,0.00,,,0.00,TxWx,2013-01-31 04:30:00,
2013-01-30 22:31:00,58.0,34.0,30.21,NE,45,13.0,13.0,41,0.00,,,0.00,TxWx,2013-01-31 04:31:00,
2013-01-30 22:32:00,59.0,28.0,30.20,NNE,22,12.0,14.0,32,0.00,,,0.00,TxWx,2013-01-31 04:32:00,
2013-01-30 22:33:00,58.0,33.0,30.21,NNE,22,5.0,5.0,40,0.00,,,0.00,TxWx,2013-01-31 04:33:00,
2013-01-30 22:35:00,59.0,27.0,30.20,NNE,22,11.0,11.0,31,0.00,,,0.00,TxWx,2013-01-31 04:35:00,
2013-01-30 22:37:00,59.0,29.0,30.20,NE,45,13.0,13.0,33,0.00,,,0.00,TxWx,2013-01-31 04:37:00,
2013-01-30 22:38:00,59.0,28.0,30.21,NE,45,14.0,14.0,32,0.00,,,0.00,TxWx,2013-01-31 04:38:00,
2013-01-30 22:39:00,58.0,34.0,30.21,East,90,6.0,8.0,41,0.00,,,0.00,TxWx,2013-01-31 04:39:00,
2013-01-30 22:41:00,59.0,26.0,30.22,NE,45,11.0,11.0,30,0.00,,,0.00,TxWx,2013-01-31 04:41:00,
2013-01-30 22:42:00,59.0,27.0,30.21,North,0,15.0,15.0,31,0.00,,,0.00,TxWx,2013-01-31 04:42:00,
2013-01-30 22:43:00,59.0,27.0,30.21,ENE,67,10.0,11.0,30,0.00,,,0.00,TxWx,2013-01-31 04:43:00,
2013-01-30 22:46:00,59.0,27.0,30.20,NNE,22,12.0,12.0,31,0.00,,,0.00,TxWx,2013-01-31 04:46:00,
2013-01-30 22:47:00,59.0,26.0,30.20,NE,45,16.0,17.0,30,0.00,,,0.00,TxWx,2013-01-31 04:47:00,
2013-01-30 22:48:00,59.0,27.0,30.20,NE,45,11.0,13.0,31,0.00,,,0.00,TxWx,2013-01-31 04:48:00,
2013-01-30 22:52:00,59.0,30.0,30.20,NNE,22,12.0,12.0,35,0.00,,,0.00,TxWx,2013-01-31 04:52:00,
2013-01-30 22:53:00,59.0,29.0,30.20,NE,45,14.0,14.0,34,0.00,,,0.00,TxWx,2013-01-31 04:53:00,
2013-01-30 22:54:00,59.0,30.0,30.21,NE,45,13.0,16.0,34,0.00,,,0.00,TxWx,2013-01-31 04:54:00,
2013-01-30 22:57:00,59.0,29.0,30.21,ENE,67,15.0,16.0,34,0.00,,,0.00,TxWx,2013-01-31 04:57:00,
2013-01-30 22:58:00,59.0,32.0,30.21,ENE,67,13.0,14.0,36,0.00,,,0.00,TxWx,2013-01-31 04:58:00,
2013-01-30 23:18:00,58.0,33.0,30.21,ENE,67,8.0,8.0,39,0.00,,,0.00,TxWx,2013-01-31 05:18:00,
2013-01-30 23:23:00,58.0,32.0,30.21,ENE,67,8.0,10.0,38,0.00,,,0.00,TxWx,2013-01-31 05:23:00,
2013-01-30 23:29:00,58.0,33.0,30.21,East,90,8.0,8.0,40,0.00,,,0.00,TxWx,2013-01-31 05:29:00,
2013-01-30 23:32:00,58.0,34.0,30.21,NE,45,5.0,6.0,40,0.00,,,0.00,TxWx,2013-01-31 05:32:00,
2013-01-30 23:34:00,58.0,35.0,30.21,NE,45,12.0,12.0,42,0.00,,,0.00,TxWx,2013-01-31 05:34:00,
2013-01-30 23:38:00,58.0,33.0,30.21,SSE,157,5.0,6.0,39,0.00,,,0.00,TxWx,2013-01-31 05:38:00,
2013-01-30 23:39:00,58.0,34.0,30.21,ESE,112,4.0,4.0,41,0.00,,,0.00,TxWx,2013-01-31 05:39:00,
2013-01-30 23:40:00,58.0,34.0,30.21,East,90,8.0,9.0,41,0.00,,,0.00,TxWx,2013-01-31 05:40:00,
2013-01-30 23:41:00,58.0,33.0,30.21,ENE,67,6.0,8.0,40,0.00,,,0.00,TxWx,2013-01-31 05:41:00,
2013-01-30 23:43:00,58.0,32.0,30.21,NE,45,11.0,11.0,38,0.00,,,0.00,TxWx,2013-01-31 05:43:00,
2013-01-30 23:44:00,58.0,32.0,30.21,ENE,67,6.0,8.0,38,0.00,,,0.00,TxWx,2013-01-31 05:44:00,
2013-01-30 23:45:00,58.0,31.0,30.21,ENE,67,8.0,8.0,37,0.00,,,0.00,TxWx,2013-01-31 05:45:00,
2013-01-30 23:46:00,58.0,34.0,30.22,NE,45,6.0,6.0,40,0.00,,,0.00,TxWx,2013-01-31 05:46:00,
2013-01-30 23:48:00,58.0,32.0,30.22,NNE,22,9.0,10.0,38,0.00,,,0.00,TxWx,2013-01-31 05:48:00,
2013-01-30 23:50:00,58.0,32.0,30.21,NE,45,8.0,8.0,38,0.00,,,0.00,TxWx,2013-01-31 05:50:00,
2013-01-30 23:51:00,58.0,31.0,30.22,NE,45,9.0,9.0,37,0.00,,,0.00,TxWx,2013-01-31 05:51:00,
2013-01-30 23:52:00,58.0,30.0,30.22,NE,45,10.0,11.0,36,0.00,,,0.00,TxWx,2013-01-31 05:52:00,
2013-01-30 23:54:00,58.0,32.0,30.22,ENE,67,8.0,8.0,38,0.00,,,0.00,TxWx,2013-01-31 05:54:00,
2013-01-30 23:56:00,58.0,30.0,30.22,NE,45,6.0,8.0,37,0.00,,,0.00,TxWx,2013-01-31 05:56:00,
2013-01-30 23:57:00,58.0,29.0,30.22,ESE,112,6.0,8.0,35,0.00,,,0.00,TxWx,2013-01-31 05:57:00,
2013-01-30 23:58:00,58.0,29.0,30.22,NNE,22,6.0,7.0,35,0.00,,,0.00,TxWx,2013-01-31 05:58:00,